Time,TemperatureF,DewpointF,PressureIn,WindDirection,WindDirectionDegrees,WindSpeedMPH,WindSpeedGustMPH,Humidity,HourlyPrecipIn,Conditions,Clouds,dailyrainin,SoftwareType,DateUTC
2013-11-02 02:02:00,73.0,15.5,0.38,NNE,22,2.9,3.1,11,0.00,,---,0.00,VWS V14.01,2013-11-02 09:02:00,
2013-11-02 08:31:00,46.8,4.3,29.85,SSE,158,2.5,2.5,17,0.00,,---,0.00,VWS V14.01,2013-11-02 15:31:00,
2013-11-02 08:32:00,62.1,12.3,29.85,NW,315,0.9,2.5,14,0.00,,---,0.00,VWS V14.01,2013-11-02 15:32:00,
2013-11-02 08:33:00,62.2,12.5,29.80,NW,315,2.0,2.0,14,0.00,,---,0.00,VWS V14.01,2013-11-02 15:33:00,
2013-11-02 08:35:00,62.2,12.5,29.80,NW,315,2.0,2.0,14,0.00,,---,0.00,VWS V14.01,2013-11-02 15:35:00,
2013-11-02 08:36:00,62.6,11.1,29.79,NW,315,0.9,2.0,13,0.00,,---,0.00,VWS V14.01,2013-11-02 15:36:00,
2013-11-02 08:37:00,62.6,11.1,29.80,NW,315,1.1,1.1,13,0.00,,---,0.00,VWS V14.01,2013-11-02 15:37:00,
2013-11-02 08:38:00,62.6,11.1,29.80,NW,315,2.0,2.0,13,0.00,,---,0.00,VWS V14.01,2013-11-02 15:38:00,
2013-11-02 08:39:00,62.6,11.1,29.80,NW,315,0.0,2.2,13,0.00,,---,0.00,VWS V14.01,2013-11-02 15:39:00,
2013-11-02 08:41:00,62.6,11.1,29.79,NW,315,0.0,0.0,13,0.00,,---,0.00,VWS V14.01,2013-11-02 15:41:00,
2013-11-02 08:42:00,62.6,11.1,29.80,NW,315,0.0,0.0,13,0.00,,---,0.00,VWS V14.01,2013-11-02 15:42:00,
2013-11-02 08:43:00,62.6,11.1,29.80,South,180,3.1,3.1,13,0.00,,---,0.00,VWS V14.01,2013-11-02 15:43:00,
2013-11-02 08:45:00,62.6,11.1,29.80,South,180,2.0,3.1,13,0.00,,---,0.00,VWS V14.01,2013-11-02 15:45:00,
2013-11-02 08:46:00,63.7,11.9,29.79,SW,225,3.1,3.1,13,0.00,,---,0.00,VWS V14.01,2013-11-02 15:46:00,
2013-11-02 08:47:00,63.7,11.9,29.80,West,270,0.9,3.1,13,0.00,,---,0.00,VWS V14.01,2013-11-02 15:47:00,
2013-11-02 08:48:00,64.0,12.2,29.82,SSW,202,0.0,1.6,13,0.00,,---,0.00,VWS V14.01,2013-11-02 15:48:00,
2013-11-02 08:49:00,64.0,12.2,29.82,NE,45,1.3,2.2,13,0.00,,---,0.00,VWS V14.01,2013-11-02 15:49:00,
2013-11-02 08:50:00,64.0,12.2,29.82,South,180,2.7,3.4,13,0.00,,---,0.00,VWS V14.01,2013-11-02 15:50:00,
2013-11-02 08:51:00,64.0,12.2,29.82,SSE,158,1.3,2.5,13,0.00,,---,0.00,VWS V14.01,2013-11-02 15:51:00,
2013-11-02 08:52:00,64.0,12.2,29.82,SSE,158,2.7,2.7,13,0.00,,---,0.00,VWS V14.01,2013-11-02 15:52:00,
2013-11-02 08:53:00,64.0,12.2,29.82,SE,135,0.9,2.7,13,0.00,,---,0.00,VWS V14.01,2013-11-02 15:53:00,
2013-11-02 08:54:00,64.4,12.5,29.82,SE,135,0.0,1.1,13,0.00,,---,0.00,VWS V14.01,2013-11-02 15:54:00,
2013-11-02 08:55:00,64.8,12.8,29.82,SSE,158,0.0,0.0,13,0.00,,---,0.00,VWS V14.01,2013-11-02 15:55:00,
2013-11-02 08:56:00,65.1,13.1,29.82,South,180,2.5,2.9,13,0.00,,---,0.00,VWS V14.01,2013-11-02 15:56:00,
2013-11-02 08:57:00,65.1,13.1,29.82,South,180,2.0,2.9,13,0.00,,---,0.00,VWS V14.01,2013-11-02 15:57:00,
2013-11-02 08:58:00,65.3,13.2,29.82,South,180,2.5,2.5,13,0.00,,---,0.00,VWS V14.01,2013-11-02 15:58:00,
2013-11-02 08:59:00,65.5,13.4,29.82,NNE,22,0.0,2.5,13,0.00,,---,0.00,VWS V14.01,2013-11-02 15:59:00,
2013-11-02 09:00:00,65.8,13.6,29.82,NNE,22,0.0,0.0,13,0.00,,---,0.00,VWS V14.01,2013-11-02 16:00:00,
2013-11-02 09:01:00,65.8,13.6,29.82,SE,135,2.5,2.5,13,0.00,,---,0.00,VWS V14.01,2013-11-02 16:01:00,
2013-11-02 09:02:00,65.8,13.6,29.82,SSE,158,2.7,2.7,13,0.00,,---,0.00,VWS V14.01,2013-11-02 16:02:00,
2013-11-02 09:03:00,66.2,12.1,29.82,SSE,158,2.0,2.7,12,0.00,,---,0.00,VWS V14.01,2013-11-02 16:03:00,
2013-11-02 09:04:00,66.0,13.8,29.82,SE,135,2.9,3.6,13,0.00,,---,0.00,VWS V14.01,2013-11-02 16:04:00,
2013-11-02 09:05:00,66.0,13.8,29.82,SSW,202,3.1,3.1,13,0.00,,---,0.00,VWS V14.01,2013-11-02 16:05:00,
2013-11-02 09:06:00,66.4,12.3,29.82,SE,135,3.6,3.6,12,0.00,,---,0.00,VWS V14.01,2013-11-02 16:06:00,
2013-11-02 09:07:00,66.4,12.3,29.82,SSW,202,1.3,3.6,12,0.00,,---,0.00,VWS V14.01,2013-11-02 16:07:00,
2013-11-02 09:08:00,66.4,12.3,29.82,SSW,202,1.3,1.3,12,0.00,,---,0.00,VWS V14.01,2013-11-02 16:08:00,
2013-11-02 09:09:00,66.9,12.7,29.82,South,180,2.5,2.5,12,0.00,,---,0.00,VWS V14.01,2013-11-02 16:09:00,
2013-11-02 09:10:00,67.1,12.8,29.82,South,180,4.3,4.3,12,0.00,,---,0.00,VWS V14.01,2013-11-02 16:10:00,
2013-11-02 09:11:00,67.1,12.8,29.82,SSE,158,1.1,2.7,12,0.00,,---,0.00,VWS V14.01,2013-11-02 16:11:00,
2013-11-02 09:12:00,67.1,12.8,29.82,South,180,2.5,2.7,12,0.00,,---,0.00,VWS V14.01,2013-11-02 16:12:00,
2013-11-02 09:13:00,68.0,13.5,29.82,SSE,158,1.6,2.5,12,0.00,,---,0.00,VWS V14.01,2013-11-02 16:13:00,
2013-11-02 09:14:00,68.2,13.7,29.82,South,180,0.0,2.2,12,0.00,,---,0.00,VWS V14.01,2013-11-02 16:14:00,
2013-11-02 09:15:00,68.4,13.8,29.82,South,180,1.6,2.0,12,0.00,,---,0.00,VWS V14.01,2013-11-02 16:15:00,
2013-11-02 09:16:00,68.4,13.8,29.82,South,180,0.0,1.6,12,0.00,,---,0.00,VWS V14.01,2013-11-02 16:16:00,
2013-11-02 09:17:00,68.4,13.8,29.82,South,180,0.0,0.0,12,0.00,,---,0.00,VWS V14.01,2013-11-02 16:17:00,
2013-11-02 09:18:00,69.3,14.5,29.82,South,180,2.7,2.9,12,0.00,,---,0.00,VWS V14.01,2013-11-02 16:18:00,
2013-11-02 09:19:00,69.4,14.6,29.82,SSW,202,2.7,2.7,12,0.00,,---,0.00,VWS V14.01,2013-11-02 16:19:00,
2013-11-02 09:20:00,69.8,14.9,29.82,SSW,202,2.7,2.7,12,0.00,,---,0.00,VWS V14.01,2013-11-02 16:20:00,
2013-11-02 09:21:00,70.0,15.1,29.82,SSE,158,3.1,3.1,12,0.00,,---,0.00,VWS V14.01,2013-11-02 16:21:00,
2013-11-02 09:22:00,70.0,15.1,29.82,South,180,2.2,3.1,12,0.00,,---,0.00,VWS V14.01,2013-11-02 16:22:00,
2013-11-02 09:23:00,70.2,15.2,29.82,South,180,3.4,3.4,12,0.00,,---,0.00,VWS V14.01,2013-11-02 16:23:00,
2013-11-02 09:24:00,70.7,15.6,29.82,SSE,158,2.9,3.4,12,0.00,,---,0.00,VWS V14.01,2013-11-02 16:24:00,
2013-11-02 09:25:00,70.9,15.8,29.82,South,180,2.5,3.6,12,0.00,,---,0.00,VWS V14.01,2013-11-02 16:25:00,
2013-11-02 09:26:00,70.7,15.6,29.82,SE,135,4.9,4.9,12,0.00,,---,0.00,VWS V14.01,2013-11-02 16:26:00,
2013-11-02 09:27:00,70.7,15.6,29.82,SSE,158,4.9,4.9,12,0.00,,---,0.00,VWS V14.01,2013-11-02 16:27:00,
2013-11-02 09:28:00,70.5,15.5,29.82,SSE,158,2.7,4.9,12,0.00,,---,0.00,VWS V14.01,2013-11-02 16:28:00,
2013-11-02 09:29:00,70.5,15.5,29.82,South,180,2.7,4.9,12,0.00,,---,0.00,VWS V14.01,2013-11-02 16:29:00,
2013-11-02 09:30:00,70.7,15.6,29.82,South,180,1.6,3.1,12,0.00,,---,0.00,VWS V14.01,2013-11-02 16:30:00,
2013-11-02 09:31:00,71.4,16.2,29.82,South,180,2.9,3.4,12,0.00,,---,0.00,VWS V14.01,2013-11-02 16:31:00,
2013-11-02 09:32:00,71.6,14.4,29.82,South,180,2.9,3.4,11,0.00,,---,0.00,VWS V14.01,2013-11-02 16:32:00,
2013-11-02 09:33:00,71.8,14.5,29.80,South,180,2.9,3.6,11,0.00,,---,0.00,VWS V14.01,2013-11-02 16:33:00,
2013-11-02 09:34:00,72.1,14.8,29.80,WSW,248,2.5,2.9,11,0.00,,---,0.00,VWS V14.01,2013-11-02 16:34:00,
2013-11-02 09:35:00,72.7,15.2,29.80,SSE,158,2.7,2.7,11,0.00,,---,0.00,VWS V14.01,2013-11-02 16:35:00,
2013-11-02 09:36:00,72.7,15.2,29.80,SSE,158,4.3,4.7,11,0.00,,---,0.00,VWS V14.01,2013-11-02 16:36:00,
2013-11-02 09:37:00,72.7,15.2,29.79,SE,135,2.7,4.3,11,0.00,,---,0.00,VWS V14.01,2013-11-02 16:37:00,
2013-11-02 09:38:00,72.9,15.3,29.80,SE,135,2.0,2.7,11,0.00,,---,0.00,VWS V14.01,2013-11-02 16:38:00,
2013-11-02 09:39:00,72.9,15.3,29.80,ESE,112,2.0,2.0,11,0.00,,---,0.00,VWS V14.01,2013-11-02 16:39:00,
2013-11-02 09:40:00,73.8,16.0,29.80,ESE,112,2.5,2.5,11,0.00,,---,0.00,VWS V14.01,2013-11-02 16:40:00,
2013-11-02 09:41:00,73.8,16.0,29.80,East,90,0.0,2.5,11,0.00,,---,0.00,VWS V14.01,2013-11-02 16:41:00,
2013-11-02 09:42:00,73.9,16.1,29.79,NE,45,2.0,2.0,11,0.00,,---,0.00,VWS V14.01,2013-11-02 16:42:00,
2013-11-02 09:43:00,74.3,16.4,29.80,NE,45,2.5,2.5,11,0.00,,---,0.00,VWS V14.01,2013-11-02 16:43:00,
2013-11-02 09:44:00,74.3,16.4,29.80,ENE,68,3.1,3.6,11,0.00,,---,0.00,VWS V14.01,2013-11-02 16:44:00,
2013-11-02 09:45:00,73.9,16.1,29.80,NE,45,2.7,3.1,11,0.00,,---,0.00,VWS V14.01,2013-11-02 16:45:00,
2013-11-02 09:46:00,73.9,16.1,29.80,NNE,22,2.9,2.9,11,0.00,,---,0.00,VWS V14.01,2013-11-02 16:46:00,
2013-11-02 09:47:00,74.1,16.3,29.79,NE,45,1.6,2.9,11,0.00,,---,0.00,VWS V14.01,2013-11-02 16:47:00,
2013-11-02 09:48:00,74.3,16.4,29.80,NNE,22,2.2,2.5,11,0.00,,---,0.00,VWS V14.01,2013-11-02 16:48:00,
2013-11-02 09:49:00,74.3,16.4,29.80,NNE,22,1.6,2.2,11,0.00,,---,0.00,VWS V14.01,2013-11-02 16:49:00,
2013-11-02 09:50:00,74.7,16.7,29.80,NE,45,2.0,3.1,11,0.00,,---,0.00,VWS V14.01,2013-11-02 16:50:00,
2013-11-02 09:51:00,74.7,16.7,29.80,ENE,68,2.5,2.5,11,0.00,,---,0.00,VWS V14.01,2013-11-02 16:51:00,
2013-11-02 09:52:00,74.7,16.7,29.79,NE,45,2.2,2.7,11,0.00,,---,0.00,VWS V14.01,2013-11-02 16:52:00,
2013-11-02 09:53:00,74.7,16.7,29.80,North,0,2.7,2.7,11,0.00,,---,0.00,VWS V14.01,2013-11-02 16:53:00,
2013-11-02 09:54:00,75.0,17.0,29.80,NNE,22,2.5,2.7,11,0.00,,---,0.00,VWS V14.01,2013-11-02 16:54:00,
2013-11-02 09:55:00,75.2,14.9,29.80,ENE,68,4.0,4.0,10,0.00,,---,0.00,VWS V14.01,2013-11-02 16:55:00,
2013-11-02 09:56:00,75.2,14.9,29.80,ENE,68,2.5,4.0,10,0.00,,---,0.00,VWS V14.01,2013-11-02 16:56:00,
2013-11-02 09:57:00,75.2,14.9,29.79,NE,45,3.8,3.8,10,0.00,,---,0.00,VWS V14.01,2013-11-02 16:57:00,
2013-11-02 09:58:00,75.2,14.9,29.80,NE,45,2.7,3.8,10,0.00,,---,0.00,VWS V14.01,2013-11-02 16:58:00,
2013-11-02 09:59:00,75.2,14.9,29.80,NNE,22,3.4,3.4,10,0.00,,---,0.00,VWS V14.01,2013-11-02 16:59:00,
2013-11-02 10:00:00,75.2,14.9,29.80,NE,45,2.7,3.6,10,0.00,,---,0.00,VWS V14.01,2013-11-02 17:00:00,
2013-11-02 10:01:00,75.2,14.9,29.80,NE,45,4.0,5.4,10,0.00,,---,0.00,VWS V14.01,2013-11-02 17:01:00,
2013-11-02 10:02:00,75.4,15.1,29.79,NE,45,3.8,4.0,10,0.00,,---,0.00,VWS V14.01,2013-11-02 17:02:00,
2013-11-02 10:03:00,75.6,15.2,29.80,NNE,22,2.9,4.0,10,0.00,,---,0.00,VWS V14.01,2013-11-02 17:03:00,
2013-11-02 10:04:00,75.7,15.4,29.80,NNE,22,3.8,3.8,10,0.00,,---,0.00,VWS V14.01,2013-11-02 17:04:00,
2013-11-02 10:05:00,75.9,15.5,29.80,NNE,22,3.4,4.0,10,0.00,,---,0.00,VWS V14.01,2013-11-02 17:05:00,
2013-11-02 10:06:00,76.1,15.6,29.80,North,0,1.6,3.4,10,0.00,,---,0.00,VWS V14.01,2013-11-02 17:06:00,
2013-11-02 10:07:00,76.6,16.0,29.79,NE,45,0.9,1.6,10,0.00,,---,0.00,VWS V14.01,2013-11-02 17:07:00,
2013-11-02 10:08:00,77.2,16.5,29.80,NE,45,3.1,3.1,10,0.00,,---,0.00,VWS V14.01,2013-11-02 17:08:00,
2013-11-02 10:09:00,77.0,16.3,29.80,ENE,68,3.4,3.8,10,0.00,,---,0.00,VWS V14.01,2013-11-02 17:09:00,
2013-11-02 10:10:00,77.0,16.3,29.80,NE,45,3.6,3.6,10,0.00,,---,0.00,VWS V14.01,2013-11-02 17:10:00,
2013-11-02 10:11:00,76.8,16.2,29.80,NNE,22,3.4,5.8,10,0.00,,---,0.00,VWS V14.01,2013-11-02 17:11:00,
2013-11-02 10:12:00,77.0,16.3,29.79,NNE,22,1.6,3.1,10,0.00,,---,0.00,VWS V14.01,2013-11-02 17:12:00,
2013-11-02 10:13:00,77.0,16.3,29.80,East,90,3.6,4.9,10,0.00,,---,0.00,VWS V14.01,2013-11-02 17:13:00,
2013-11-02 10:14:00,77.4,16.6,29.80,East,90,4.0,4.3,10,0.00,,---,0.00,VWS V14.01,2013-11-02 17:14:00,
2013-11-02 10:15:00,77.4,16.6,29.80,East,90,4.0,4.0,10,0.00,,---,0.00,VWS V14.01,2013-11-02 17:15:00,
2013-11-02 10:16:00,77.4,16.6,29.80,ENE,68,2.7,4.0,10,0.00,,---,0.00,VWS V14.01,2013-11-02 17:16:00,
2013-11-02 10:17:00,77.5,16.7,29.79,ENE,68,3.4,5.6,10,0.00,,---,0.00,VWS V14.01,2013-11-02 17:17:00,
2013-11-02 10:18:00,77.5,16.7,29.80,NE,45,3.8,5.6,10,0.00,,---,0.00,VWS V14.01,2013-11-02 17:18:00,
2013-11-02 10:19:00,77.7,16.9,29.80,SE,135,4.3,4.3,10,0.00,,---,0.00,VWS V14.01,2013-11-02 17:19:00,
2013-11-02 10:20:00,77.9,17.0,29.80,East,90,3.6,5.6,10,0.00,,---,0.00,VWS V14.01,2013-11-02 17:20:00,
2013-11-02 10:21:00,78.1,17.1,29.80,ESE,112,3.8,4.3,10,0.00,,---,0.00,VWS V14.01,2013-11-02 17:21:00,
2013-11-02 10:22:00,79.0,17.8,29.79,East,90,2.5,2.5,10,0.00,,---,0.00,VWS V14.01,2013-11-02 17:22:00,
2013-11-02 10:23:00,79.0,17.8,29.80,SE,135,3.8,3.8,10,0.00,,---,0.00,VWS V14.01,2013-11-02 17:23:00,
2013-11-02 10:24:00,79.2,18.0,29.80,SE,135,3.8,5.6,10,0.00,,---,0.00,VWS V14.01,2013-11-02 17:24:00,
2013-11-02 10:25:00,79.3,18.1,29.80,ENE,68,3.4,4.7,10,0.00,,---,0.00,VWS V14.01,2013-11-02 17:25:00,
2013-11-02 10:26:00,79.3,18.1,29.80,East,90,4.0,8.7,10,0.00,,---,0.00,VWS V14.01,2013-11-02 17:26:00,
2013-11-02 10:27:00,79.2,18.0,29.79,SE,135,5.4,7.4,10,0.00,,---,0.00,VWS V14.01,2013-11-02 17:27:00,
2013-11-02 10:28:00,79.2,18.0,29.80,SE,135,5.4,7.4,10,0.00,,---,0.00,VWS V14.01,2013-11-02 17:28:00,
2013-11-02 10:29:00,79.5,18.2,29.80,SE,135,7.4,7.4,10,0.00,,---,0.00,VWS V14.01,2013-11-02 17:29:00,
2013-11-02 10:30:00,79.7,18.4,29.80,East,90,4.3,7.4,10,0.00,,---,0.00,VWS V14.01,2013-11-02 17:30:00,
2013-11-02 10:31:00,79.3,18.1,29.80,ESE,112,8.1,13.2,10,0.00,,---,0.00,VWS V14.01,2013-11-02 17:31:00,
2013-11-02 10:32:00,79.3,18.1,29.76,ESE,112,4.3,11.0,10,0.00,,---,0.00,VWS V14.01,2013-11-02 17:32:00,
2013-11-02 10:33:00,79.7,18.4,29.76,NE,45,5.4,11.0,10,0.00,,---,0.00,VWS V14.01,2013-11-02 17:33:00,
2013-11-02 10:34:00,80.1,18.6,29.76,SSE,158,5.4,6.3,10,0.00,,---,0.00,VWS V14.01,2013-11-02 17:34:00,
2013-11-02 10:35:00,80.1,18.6,29.76,SE,135,8.7,8.7,10,0.00,,---,0.00,VWS V14.01,2013-11-02 17:35:00,
2013-11-02 10:36:00,80.2,18.8,29.76,SSE,158,4.9,8.7,10,0.00,,---,0.00,VWS V14.01,2013-11-02 17:36:00,
2013-11-02 10:37:00,79.7,18.4,29.76,East,90,12.3,12.8,10,0.00,,---,0.00,VWS V14.01,2013-11-02 17:37:00,
2013-11-02 10:38:00,79.7,18.4,29.76,NE,45,8.1,12.8,10,0.00,,---,0.00,VWS V14.01,2013-11-02 17:38:00,
2013-11-02 10:39:00,79.7,18.4,29.76,ESE,112,10.7,10.7,10,0.00,,---,0.00,VWS V14.01,2013-11-02 17:39:00,
2013-11-02 10:40:00,79.7,18.4,29.76,SE,135,7.4,12.8,10,0.00,,---,0.00,VWS V14.01,2013-11-02 17:40:00,
2013-11-02 10:41:00,79.9,18.5,29.76,East,90,10.7,11.2,10,0.00,,---,0.00,VWS V14.01,2013-11-02 17:41:00,
2013-11-02 10:42:00,80.1,18.6,29.76,ENE,68,10.5,10.5,10,0.00,,---,0.00,VWS V14.01,2013-11-02 17:42:00,
2013-11-02 10:43:00,80.2,18.8,29.76,ESE,112,5.4,10.5,10,0.00,,---,0.00,VWS V14.01,2013-11-02 17:43:00,
2013-11-02 10:44:00,80.8,16.7,29.76,East,90,4.3,6.5,9,0.00,,---,0.00,VWS V14.01,2013-11-02 17:44:00,
2013-11-02 10:45:00,80.6,16.6,29.76,SSE,158,10.7,10.7,9,0.00,,---,0.00,VWS V14.01,2013-11-02 17:45:00,
2013-11-02 10:46:00,80.8,16.7,29.76,ESE,112,11.0,11.0,9,0.00,,---,0.00,VWS V14.01,2013-11-02 17:46:00,
2013-11-02 10:47:00,80.8,16.7,29.79,East,90,5.4,11.0,9,0.00,,---,0.00,VWS V14.01,2013-11-02 17:47:00,
2013-11-02 10:48:00,80.8,16.7,29.80,East,90,5.4,5.4,9,0.00,,---,0.00,VWS V14.01,2013-11-02 17:48:00,
2013-11-02 10:49:00,81.1,17.0,29.80,ESE,112,13.0,13.0,9,0.00,,---,0.00,VWS V14.01,2013-11-02 17:49:00,
2013-11-02 10:50:00,81.1,17.0,29.80,ENE,68,7.6,13.0,9,0.00,,---,0.00,VWS V14.01,2013-11-02 17:50:00,
2013-11-02 10:52:00,82.0,17.7,29.79,East,90,5.4,5.4,9,0.00,,---,0.00,VWS V14.01,2013-11-02 17:52:00,
2013-11-02 10:53:00,82.0,17.7,29.80,East,90,8.7,8.7,9,0.00,,---,0.00,VWS V14.01,2013-11-02 17:53:00,
2013-11-02 10:54:00,82.0,17.7,29.80,ESE,112,9.0,12.1,9,0.00,,---,0.00,VWS V14.01,2013-11-02 17:54:00,
2013-11-02 10:55:00,82.0,17.7,29.80,ESE,112,10.3,10.7,9,0.00,,---,0.00,VWS V14.01,2013-11-02 17:55:00,
2013-11-02 10:56:00,82.0,17.7,29.80,ENE,68,6.3,10.3,9,0.00,,---,0.00,VWS V14.01,2013-11-02 17:56:00,
2013-11-02 10:57:00,82.2,17.8,29.79,ESE,112,5.6,8.1,9,0.00,,---,0.00,VWS V14.01,2013-11-02 17:57:00,
2013-11-02 10:58:00,82.2,17.8,29.80,ESE,112,5.6,8.1,9,0.00,,---,0.00,VWS V14.01,2013-11-02 17:58:00,
2013-11-02 10:59:00,82.2,17.8,29.80,ESE,112,8.5,12.1,9,0.00,,---,0.00,VWS V14.01,2013-11-02 17:59:00,
2013-11-02 11:00:00,82.4,18.0,29.80,SE,135,10.5,10.5,9,0.00,,---,0.00,VWS V14.01,2013-11-02 18:00:00,
2013-11-02 11:01:00,82.4,18.0,29.80,SE,135,8.5,10.5,9,0.00,,---,0.00,VWS V14.01,2013-11-02 18:01:00,
2013-11-02 11:02:00,82.2,17.8,29.79,East,90,10.3,13.0,9,0.00,,---,0.00,VWS V14.01,2013-11-02 18:02:00,
2013-11-02 11:03:00,82.6,18.1,29.80,NNE,22,8.5,13.0,9,0.00,,---,0.00,VWS V14.01,2013-11-02 18:03:00,
2013-11-02 11:05:00,82.8,18.2,29.80,SSE,158,7.6,8.5,9,0.00,,---,0.00,VWS V14.01,2013-11-02 18:05:00,
2013-11-02 11:06:00,83.1,18.5,29.80,SE,135,7.4,7.6,9,0.00,,---,0.00,VWS V14.01,2013-11-02 18:06:00,
2013-11-02 11:07:00,83.1,18.5,29.79,East,90,8.7,8.7,9,0.00,,---,0.00,VWS V14.01,2013-11-02 18:07:00,
2013-11-02 11:08:00,83.1,18.5,29.80,South,180,4.9,8.7,9,0.00,,---,0.00,VWS V14.01,2013-11-02 18:08:00,
2013-11-02 11:09:00,83.1,18.5,29.80,SE,135,4.9,4.9,9,0.00,,---,0.00,VWS V14.01,2013-11-02 18:09:00,
2013-11-02 11:10:00,83.5,18.8,29.80,ENE,68,10.1,12.3,9,0.00,,---,0.00,VWS V14.01,2013-11-02 18:10:00,
2013-11-02 11:11:00,83.7,18.9,29.80,ENE,68,6.3,12.1,9,0.00,,---,0.00,VWS V14.01,2013-11-02 18:11:00,
2013-11-02 11:12:00,84.0,19.2,29.79,SSE,158,6.5,10.5,9,0.00,,---,0.00,VWS V14.01,2013-11-02 18:12:00,
2013-11-02 11:13:00,84.0,19.2,29.80,SSE,158,7.4,10.5,9,0.00,,---,0.00,VWS V14.01,2013-11-02 18:13:00,
2013-11-02 11:14:00,84.2,16.6,29.80,NE,45,6.5,7.4,8,0.00,,---,0.00,VWS V14.01,2013-11-02 18:14:00,
2013-11-02 11:15:00,84.2,16.6,29.80,SSE,158,7.4,7.4,8,0.00,,---,0.00,VWS V14.01,2013-11-02 18:15:00,
2013-11-02 11:16:00,84.4,16.7,29.80,South,180,6.5,10.1,8,0.00,,---,0.00,VWS V14.01,2013-11-02 18:16:00,
2013-11-02 11:17:00,84.2,16.6,29.76,South,180,9.8,10.5,8,0.00,,---,0.00,VWS V14.01,2013-11-02 18:17:00,
2013-11-02 11:18:00,84.4,16.7,29.76,East,90,8.1,9.8,8,0.00,,---,0.00,VWS V14.01,2013-11-02 18:18:00,
2013-11-02 11:19:00,84.4,16.7,29.76,ESE,112,11.0,11.9,8,0.00,,---,0.00,VWS V14.01,2013-11-02 18:19:00,
2013-11-02 11:20:00,84.6,16.9,29.76,ESE,112,7.8,11.0,8,0.00,,---,0.00,VWS V14.01,2013-11-02 18:20:00,
2013-11-02 11:21:00,85.1,17.2,29.76,East,90,8.5,8.5,8,0.00,,---,0.00,VWS V14.01,2013-11-02 18:21:00,
2013-11-02 11:22:00,85.3,17.4,29.76,SSE,158,3.8,8.5,8,0.00,,---,0.00,VWS V14.01,2013-11-02 18:22:00,
2013-11-02 11:23:00,85.8,17.8,29.76,SE,135,7.8,7.8,8,0.00,,---,0.00,VWS V14.01,2013-11-02 18:23:00,
2013-11-02 11:24:00,85.8,17.8,29.76,SSE,158,7.2,8.1,8,0.00,,---,0.00,VWS V14.01,2013-11-02 18:24:00,
2013-11-02 11:25:00,85.8,17.8,29.76,SSE,158,8.7,8.7,8,0.00,,---,0.00,VWS V14.01,2013-11-02 18:25:00,
2013-11-02 11:26:00,85.8,17.8,29.76,SSE,158,8.1,12.1,8,0.00,,---,0.00,VWS V14.01,2013-11-02 18:26:00,
2013-11-02 11:27:00,86.0,17.9,29.76,SE,135,7.2,8.5,8,0.00,,---,0.00,VWS V14.01,2013-11-02 18:27:00,
2013-11-02 11:28:00,86.5,18.3,29.76,East,90,8.1,8.1,8,0.00,,---,0.00,VWS V14.01,2013-11-02 18:28:00,
2013-11-02 11:29:00,85.8,17.8,29.76,South,180,6.5,11.0,8,0.00,,---,0.00,VWS V14.01,2013-11-02 18:29:00,
2013-11-02 11:30:00,85.8,17.8,29.76,East,90,9.6,9.6,8,0.00,,---,0.00,VWS V14.01,2013-11-02 18:30:00,
2013-11-02 11:31:00,85.8,17.8,29.76,NE,45,5.8,9.6,8,0.00,,---,0.00,VWS V14.01,2013-11-02 18:31:00,
2013-11-02 11:32:00,86.0,17.9,29.76,SE,135,6.9,6.9,8,0.00,,---,0.00,VWS V14.01,2013-11-02 18:32:00,
2013-11-02 11:33:00,86.0,17.9,29.76,SSE,158,5.4,7.4,8,0.00,,---,0.00,VWS V14.01,2013-11-02 18:33:00,
2013-11-02 11:34:00,87.1,18.7,29.76,ESE,112,5.4,5.4,8,0.00,,---,0.00,VWS V14.01,2013-11-02 18:34:00,
2013-11-02 11:35:00,87.1,18.7,29.76,ESE,112,5.4,5.4,8,0.00,,---,0.00,VWS V14.01,2013-11-02 18:35:00,
2013-11-02 11:36:00,87.3,18.9,29.76,East,90,7.2,7.2,8,0.00,,---,0.00,VWS V14.01,2013-11-02 18:36:00,
2013-11-02 11:37:00,87.4,19.0,29.76,East,90,3.4,7.2,8,0.00,,---,0.00,VWS V14.01,2013-11-02 18:37:00,
2013-11-02 11:38:00,87.4,19.0,29.76,SSE,158,3.6,3.6,8,0.00,,---,0.00,VWS V14.01,2013-11-02 18:38:00,
2013-11-02 11:39:00,87.6,19.1,29.76,ESE,112,5.6,5.8,8,0.00,,---,0.00,VWS V14.01,2013-11-02 18:39:00,
2013-11-02 11:40:00,88.0,19.4,29.76,ESE,112,3.4,5.6,8,0.00,,---,0.00,VWS V14.01,2013-11-02 18:40:00,
2013-11-02 11:41:00,88.3,19.6,29.76,ESE,112,5.4,5.4,8,0.00,,---,0.00,VWS V14.01,2013-11-02 18:41:00,
2013-11-02 11:42:00,88.5,19.8,29.76,SSE,158,4.9,5.4,8,0.00,,---,0.00,VWS V14.01,2013-11-02 18:42:00,
2013-11-02 11:43:00,88.2,19.5,29.76,ESE,112,6.5,6.5,8,0.00,,---,0.00,VWS V14.01,2013-11-02 18:43:00,
2013-11-02 11:44:00,88.2,19.5,29.76,ENE,68,6.3,6.5,8,0.00,,---,0.00,VWS V14.01,2013-11-02 18:44:00,
2013-11-02 11:45:00,88.2,19.5,29.76,East,90,6.0,7.8,8,0.00,,---,0.00,VWS V14.01,2013-11-02 18:45:00,
2013-11-02 11:46:00,88.0,19.4,29.76,East,90,6.3,6.3,8,0.00,,---,0.00,VWS V14.01,2013-11-02 18:46:00,
2013-11-02 11:47:00,88.2,19.5,29.74,East,90,3.4,6.3,8,0.00,,---,0.00,VWS V14.01,2013-11-02 18:47:00,
2013-11-02 11:48:00,88.5,19.8,29.74,ESE,112,3.6,3.6,8,0.00,,---,0.00,VWS V14.01,2013-11-02 18:48:00,
2013-11-02 11:49:00,89.1,20.2,29.74,ENE,68,4.0,4.0,8,0.00,,---,0.00,VWS V14.01,2013-11-02 18:49:00,
2013-11-02 11:50:00,89.1,20.2,29.74,ENE,68,3.8,4.0,8,0.00,,---,0.00,VWS V14.01,2013-11-02 18:50:00,
2013-11-02 11:51:00,89.1,20.2,29.74,NE,45,5.4,5.4,8,0.00,,---,0.00,VWS V14.01,2013-11-02 18:51:00,
2013-11-02 11:52:00,89.1,20.2,29.74,East,90,6.0,6.0,8,0.00,,---,0.00,VWS V14.01,2013-11-02 18:52:00,
2013-11-02 11:53:00,89.1,20.2,29.74,ENE,68,5.8,6.0,8,0.00,,---,0.00,VWS V14.01,2013-11-02 18:53:00,
2013-11-02 11:54:00,89.1,20.2,29.74,ENE,68,5.8,6.0,8,0.00,,---,0.00,VWS V14.01,2013-11-02 18:54:00,
2013-11-02 11:55:00,89.6,17.5,29.74,East,90,3.4,5.8,7,0.00,,---,0.00,VWS V14.01,2013-11-02 18:55:00,
2013-11-02 11:56:00,90.0,17.7,29.74,NE,45,3.8,4.0,7,0.00,,---,0.00,VWS V14.01,2013-11-02 18:56:00,
2013-11-02 11:57:00,89.6,17.5,29.74,SE,135,5.4,7.2,7,0.00,,---,0.00,VWS V14.01,2013-11-02 18:57:00,
2013-11-02 11:58:00,90.3,18.0,29.74,NE,45,4.0,4.3,7,0.00,,---,0.00,VWS V14.01,2013-11-02 18:58:00,
2013-11-02 11:59:00,90.5,18.1,29.74,East,90,4.9,4.9,7,0.00,,---,0.00,VWS V14.01,2013-11-02 18:59:00,
2013-11-02 12:00:00,90.7,18.2,29.74,SE,135,3.6,4.9,7,0.00,,---,0.00,VWS V14.01,2013-11-02 19:00:00,
2013-11-02 12:01:00,90.7,18.2,29.74,SSE,158,3.4,3.8,7,0.00,,---,0.00,VWS V14.01,2013-11-02 19:01:00,
2013-11-02 12:02:00,90.3,18.0,29.74,SE,135,5.8,7.8,7,0.00,,---,0.00,VWS V14.01,2013-11-02 19:02:00,
2013-11-02 12:03:00,90.1,17.9,29.74,SSE,158,6.0,7.4,7,0.00,,---,0.00,VWS V14.01,2013-11-02 19:03:00,
2013-11-02 12:04:00,90.1,17.9,29.74,East,90,9.6,9.6,7,0.00,,---,0.00,VWS V14.01,2013-11-02 19:04:00,
2013-11-02 12:05:00,90.3,18.0,29.74,East,90,4.0,9.6,7,0.00,,---,0.00,VWS V14.01,2013-11-02 19:05:00,
2013-11-02 12:06:00,90.3,18.0,29.74,SSW,202,3.8,5.6,7,0.00,,---,0.00,VWS V14.01,2013-11-02 19:06:00,
2013-11-02 12:07:00,90.7,18.2,29.74,SSE,158,3.4,5.4,7,0.00,,---,0.00,VWS V14.01,2013-11-02 19:07:00,
2013-11-02 12:08:00,90.7,18.2,29.74,SE,135,6.0,6.0,7,0.00,,---,0.00,VWS V14.01,2013-11-02 19:08:00,
2013-11-02 12:09:00,90.7,18.2,29.74,SE,135,6.0,6.0,7,0.00,,---,0.00,VWS V14.01,2013-11-02 19:09:00,
2013-11-02 12:10:00,90.7,18.2,29.74,SE,135,3.8,6.0,7,0.00,,---,0.00,VWS V14.01,2013-11-02 19:10:00,
2013-11-02 12:11:00,91.8,19.0,29.74,ENE,68,3.4,8.1,7,0.00,,---,0.00,VWS V14.01,2013-11-02 19:11:00,
2013-11-02 12:12:00,91.8,19.0,29.74,ENE,68,3.4,3.4,7,0.00,,---,0.00,VWS V14.01,2013-11-02 19:12:00,
2013-11-02 12:13:00,91.8,19.0,29.74,ENE,68,2.7,3.6,7,0.00,,---,0.00,VWS V14.01,2013-11-02 19:13:00,
2013-11-02 12:14:00,91.8,19.0,29.74,NE,45,5.4,5.4,7,0.00,,---,0.00,VWS V14.01,2013-11-02 19:14:00,
2013-11-02 12:15:00,91.4,18.8,29.74,ESE,112,2.7,5.4,7,0.00,,---,0.00,VWS V14.01,2013-11-02 19:15:00,
2013-11-02 12:16:00,91.4,18.8,29.74,ESE,112,6.0,6.0,7,0.00,,---,0.00,VWS V14.01,2013-11-02 19:16:00,
2013-11-02 12:17:00,91.4,18.8,29.74,SE,135,6.5,7.2,7,0.00,,---,0.00,VWS V14.01,2013-11-02 19:17:00,
2013-11-02 12:18:00,91.2,18.6,29.74,East,90,4.9,6.5,7,0.00,,---,0.00,VWS V14.01,2013-11-02 19:18:00,
2013-11-02 12:19:00,91.4,18.8,29.74,ESE,112,5.6,5.6,7,0.00,,---,0.00,VWS V14.01,2013-11-02 19:19:00,
2013-11-02 12:21:00,91.8,19.0,29.74,East,90,1.6,5.8,7,0.00,,---,0.00,VWS V14.01,2013-11-02 19:21:00,
2013-11-02 12:22:00,92.5,19.6,29.74,East,90,3.4,3.4,7,0.00,,---,0.00,VWS V14.01,2013-11-02 19:22:00,
2013-11-02 12:23:00,92.5,19.6,29.74,ESE,112,6.0,6.0,7,0.00,,---,0.00,VWS V14.01,2013-11-02 19:23:00,
2013-11-02 12:24:00,92.7,19.7,29.74,SSE,158,7.8,7.8,7,0.00,,---,0.00,VWS V14.01,2013-11-02 19:24:00,
2013-11-02 12:25:00,92.3,19.4,29.74,SE,135,7.8,7.8,7,0.00,,---,0.00,VWS V14.01,2013-11-02 19:25:00,
2013-11-02 12:26:00,91.9,19.2,29.74,SSE,158,6.0,8.5,7,0.00,,---,0.00,VWS V14.01,2013-11-02 19:26:00,
2013-11-02 12:27:00,91.9,19.2,29.74,SE,135,4.3,6.0,7,0.00,,---,0.00,VWS V14.01,2013-11-02 19:27:00,
2013-11-02 12:28:00,92.3,19.4,29.74,SSE,158,3.1,5.8,7,0.00,,---,0.00,VWS V14.01,2013-11-02 19:28:00,
2013-11-02 12:29:00,92.3,19.4,29.74,South,180,3.6,3.6,7,0.00,,---,0.00,VWS V14.01,2013-11-02 19:29:00,
2013-11-02 12:30:00,92.8,19.8,29.74,West,270,2.5,4.7,7,0.00,,---,0.00,VWS V14.01,2013-11-02 19:30:00,
2013-11-02 12:31:00,93.2,16.5,29.74,South,180,3.1,3.6,6,0.00,,---,0.00,VWS V14.01,2013-11-02 19:31:00,
2013-11-02 12:32:00,92.7,19.7,29.71,SSE,158,4.9,7.6,7,0.00,,---,0.00,VWS V14.01,2013-11-02 19:32:00,
2013-11-02 12:33:00,92.5,19.6,29.71,South,180,8.1,8.7,7,0.00,,---,0.00,VWS V14.01,2013-11-02 19:33:00,
2013-11-02 12:34:00,92.7,19.7,29.71,South,180,4.9,4.9,7,0.00,,---,0.00,VWS V14.01,2013-11-02 19:34:00,
2013-11-02 12:35:00,92.7,19.7,29.71,SE,135,4.3,6.0,7,0.00,,---,0.00,VWS V14.01,2013-11-02 19:35:00,
2013-11-02 12:36:00,92.7,25.6,29.71,SSE,158,6.7,7.2,9,0.00,,---,0.00,VWS V14.01,2013-11-02 19:36:00,
2013-11-02 12:37:00,92.7,25.6,29.71,SSE,158,3.4,6.7,9,0.00,,---,0.00,VWS V14.01,2013-11-02 19:37:00,
2013-11-02 12:38:00,92.7,19.7,29.71,South,180,4.3,5.8,7,0.00,,---,0.00,VWS V14.01,2013-11-02 19:38:00,
2013-11-02 12:39:00,93.2,16.5,29.71,SSE,158,5.6,5.6,6,0.00,,---,0.00,VWS V14.01,2013-11-02 19:39:00,
2013-11-02 12:40:00,93.2,16.5,29.71,SSE,158,3.8,5.6,6,0.00,,---,0.00,VWS V14.01,2013-11-02 19:40:00,
2013-11-02 12:41:00,93.7,26.5,29.71,East,90,2.5,4.3,9,0.00,,---,0.00,VWS V14.01,2013-11-02 19:41:00,
2013-11-02 12:42:00,94.3,26.9,29.71,South,180,0.9,2.5,9,0.00,,---,0.00,VWS V14.01,2013-11-02 19:42:00,
2013-11-02 12:43:00,94.3,26.9,29.71,ESE,112,4.9,4.9,9,0.00,,---,0.00,VWS V14.01,2013-11-02 19:43:00,
2013-11-02 12:44:00,93.6,26.3,29.71,South,180,3.8,4.3,9,0.00,,---,0.00,VWS V14.01,2013-11-02 19:44:00,
2013-11-02 12:45:00,93.6,26.3,29.71,South,180,3.4,4.3,9,0.00,,---,0.00,VWS V14.01,2013-11-02 19:45:00,
2013-11-02 12:46:00,93.9,17.0,29.71,SE,135,3.4,4.0,6,0.00,,---,0.00,VWS V14.01,2013-11-02 19:46:00,
2013-11-02 12:47:00,94.1,26.7,29.71,South,180,2.9,3.4,9,0.00,,---,0.00,VWS V14.01,2013-11-02 19:47:00,
2013-11-02 12:48:00,94.3,26.9,29.71,SE,135,2.2,3.1,9,0.00,,---,0.00,VWS V14.01,2013-11-02 19:48:00,
2013-11-02 12:49:00,95.4,27.7,29.71,SW,225,0.0,0.0,9,0.00,,---,0.00,VWS V14.01,2013-11-02 19:49:00,
2013-11-02 12:50:00,95.7,27.9,29.71,NNE,22,2.0,2.0,9,0.00,,---,0.00,VWS V14.01,2013-11-02 19:50:00,
2013-11-02 12:51:00,95.7,27.9,29.71,SE,135,2.7,2.7,9,0.00,,---,0.00,VWS V14.01,2013-11-02 19:51:00,
2013-11-02 12:52:00,95.5,27.8,29.71,East,90,2.7,2.9,9,0.00,,---,0.00,VWS V14.01,2013-11-02 19:52:00,
2013-11-02 12:53:00,95.4,27.7,29.71,East,90,2.0,3.4,9,0.00,,---,0.00,VWS V14.01,2013-11-02 19:53:00,
2013-11-02 12:54:00,95.0,27.4,29.71,NE,45,2.9,4.0,9,0.00,,---,0.00,VWS V14.01,2013-11-02 19:54:00,
2013-11-02 12:55:00,95.0,27.4,29.71,East,90,3.8,4.0,9,0.00,,---,0.00,VWS V14.01,2013-11-02 19:55:00,
2013-11-02 12:56:00,94.6,27.1,29.71,SSW,202,0.0,3.8,9,0.00,,---,0.00,VWS V14.01,2013-11-02 19:56:00,
2013-11-02 12:57:00,95.4,27.7,29.71,NNW,338,1.6,2.5,9,0.00,,---,0.00,VWS V14.01,2013-11-02 19:57:00,
2013-11-02 12:59:00,95.4,27.7,29.71,WSW,248,3.4,3.4,9,0.00,,---,0.00,VWS V14.01,2013-11-02 19:59:00,
2013-11-02 13:00:00,95.5,27.8,29.71,SSW,202,4.3,4.3,9,0.00,,---,0.00,VWS V14.01,2013-11-02 20:00:00,
2013-11-02 13:01:00,95.5,27.8,29.71,SW,225,3.1,5.6,9,0.00,,---,0.00,VWS V14.01,2013-11-02 20:01:00,
2013-11-02 13:02:00,96.1,28.2,29.71,East,90,2.5,3.1,9,0.00,,---,0.00,VWS V14.01,2013-11-02 20:02:00,
2013-11-02 13:03:00,96.3,28.3,29.71,SW,225,0.0,3.1,9,0.00,,---,0.00,VWS V14.01,2013-11-02 20:03:00,
2013-11-02 13:04:00,97.0,26.0,29.71,WSW,248,1.3,1.3,8,0.00,,---,0.00,VWS V14.01,2013-11-02 20:04:00,
2013-11-02 13:05:00,97.2,26.1,29.71,SSE,158,2.0,2.7,8,0.00,,---,0.00,VWS V14.01,2013-11-02 20:05:00,
2013-11-02 13:06:00,97.0,26.0,29.71,NW,315,3.1,3.8,8,0.00,,---,0.00,VWS V14.01,2013-11-02 20:06:00,
2013-11-02 13:07:00,97.0,26.0,29.71,SSW,202,4.0,4.0,8,0.00,,---,0.00,VWS V14.01,2013-11-02 20:07:00,
2013-11-02 13:08:00,96.8,25.9,29.71,South,180,2.7,4.0,8,0.00,,---,0.00,VWS V14.01,2013-11-02 20:08:00,
2013-11-02 13:09:00,97.2,26.1,29.71,South,180,2.5,3.1,8,0.00,,---,0.00,VWS V14.01,2013-11-02 20:09:00,
2013-11-02 13:10:00,97.2,26.1,29.71,WSW,248,2.5,3.1,8,0.00,,---,0.00,VWS V14.01,2013-11-02 20:10:00,
2013-11-02 13:11:00,97.5,26.4,29.71,SSE,158,1.3,2.5,8,0.00,,---,0.00,VWS V14.01,2013-11-02 20:11:00,
2013-11-02 13:12:00,98.2,26.9,29.71,NNE,22,0.0,1.6,8,0.00,,---,0.00,VWS V14.01,2013-11-02 20:12:00,
2013-11-02 13:13:00,98.2,26.9,29.71,South,180,3.1,3.1,8,0.00,,---,0.00,VWS V14.01,2013-11-02 20:13:00,
2013-11-02 13:14:00,98.1,26.8,29.71,SW,225,2.5,2.7,8,0.00,,---,0.00,VWS V14.01,2013-11-02 20:14:00,
2013-11-02 13:15:00,98.1,26.8,29.71,West,270,4.3,4.3,8,0.00,,---,0.00,VWS V14.01,2013-11-02 20:15:00,
2013-11-02 13:16:00,97.9,26.7,29.71,SW,225,1.3,4.3,8,0.00,,---,0.00,VWS V14.01,2013-11-02 20:16:00,
2013-11-02 13:17:00,97.9,26.7,29.68,South,180,2.2,4.0,8,0.00,,---,0.00,VWS V14.01,2013-11-02 20:17:00,
2013-11-02 13:18:00,97.7,26.5,29.68,WNW,292,0.0,2.2,8,0.00,,---,0.00,VWS V14.01,2013-11-02 20:18:00,
2013-11-02 13:19:00,97.5,26.4,29.68,SSE,158,1.1,2.9,8,0.00,,---,0.00,VWS V14.01,2013-11-02 20:19:00,
2013-11-02 13:20:00,97.7,26.5,29.68,SE,135,1.3,2.9,8,0.00,,---,0.00,VWS V14.01,2013-11-02 20:20:00,
2013-11-02 13:21:00,98.1,26.8,29.68,West,270,0.9,1.3,8,0.00,,---,0.00,VWS V14.01,2013-11-02 20:21:00,
2013-11-02 13:22:00,98.1,26.8,29.68,SSE,158,2.2,2.7,8,0.00,,---,0.00,VWS V14.01,2013-11-02 20:22:00,
2013-11-02 13:23:00,98.1,26.8,29.68,SW,225,2.7,2.7,8,0.00,,---,0.00,VWS V14.01,2013-11-02 20:23:00,
2013-11-02 13:24:00,97.7,26.5,29.68,SSW,202,2.9,3.8,8,0.00,,---,0.00,VWS V14.01,2013-11-02 20:24:00,
2013-11-02 13:25:00,97.7,26.5,29.68,SSE,158,3.8,3.8,8,0.00,,---,0.00,VWS V14.01,2013-11-02 20:25:00,
2013-11-02 13:26:00,97.5,26.4,29.68,South,180,3.1,4.9,8,0.00,,---,0.00,VWS V14.01,2013-11-02 20:26:00,
2013-11-02 13:27:00,97.2,26.1,29.68,SSW,202,3.4,3.4,8,0.00,,---,0.00,VWS V14.01,2013-11-02 20:27:00,
2013-11-02 13:28:00,97.3,26.3,29.68,SW,225,2.7,4.3,8,0.00,,---,0.00,VWS V14.01,2013-11-02 20:28:00,
2013-11-02 13:29:00,97.7,26.5,29.68,NNW,338,1.6,3.1,8,0.00,,---,0.00,VWS V14.01,2013-11-02 20:29:00,
2013-11-02 13:30:00,97.7,26.5,29.68,SE,135,1.3,3.1,8,0.00,,---,0.00,VWS V14.01,2013-11-02 20:30:00,
2013-11-02 13:31:00,97.7,26.5,29.68,SE,135,1.3,1.3,8,0.00,,---,0.00,VWS V14.01,2013-11-02 20:31:00,
2013-11-02 13:32:00,97.7,26.5,29.68,SSW,202,3.6,4.0,8,0.00,,---,0.00,VWS V14.01,2013-11-02 20:32:00,
2013-11-02 13:33:00,98.1,26.8,29.68,WSW,248,0.0,3.6,8,0.00,,---,0.00,VWS V14.01,2013-11-02 20:33:00,
2013-11-02 13:34:00,98.2,27.0,29.68,ENE,68,3.1,3.1,8,0.00,,---,0.00,VWS V14.01,2013-11-02 20:34:00,
2013-11-02 13:35:00,97.9,26.7,29.68,SE,135,1.6,3.1,8,0.00,,---,0.00,VWS V14.01,2013-11-02 20:35:00,
2013-11-02 13:36:00,97.9,26.7,29.68,NW,315,1.1,2.7,8,0.00,,---,0.00,VWS V14.01,2013-11-02 20:36:00,
2013-11-02 13:37:00,97.9,26.7,29.68,SSE,158,1.6,3.4,8,0.00,,---,0.00,VWS V14.01,2013-11-02 20:37:00,
2013-11-02 13:38:00,97.9,26.7,29.68,SSW,202,3.4,3.4,8,0.00,,---,0.00,VWS V14.01,2013-11-02 20:38:00,
2013-11-02 13:39:00,98.1,26.8,29.68,SE,135,2.7,3.6,8,0.00,,---,0.00,VWS V14.01,2013-11-02 20:39:00,
2013-11-02 13:40:00,98.1,26.8,29.68,SE,135,2.7,3.6,8,0.00,,---,0.00,VWS V14.01,2013-11-02 20:40:00,
2013-11-02 13:41:00,97.9,26.7,29.68,WSW,248,2.0,2.7,8,0.00,,---,0.00,VWS V14.01,2013-11-02 20:41:00,
2013-11-02 13:42:00,97.9,26.7,29.68,West,270,2.7,2.7,8,0.00,,---,0.00,VWS V14.01,2013-11-02 20:42:00,
2013-11-02 13:44:00,97.3,26.3,29.68,WNW,292,2.7,3.4,8,0.00,,---,0.00,VWS V14.01,2013-11-02 20:44:00,
2013-11-02 13:46:00,97.3,26.3,29.68,WNW,292,2.7,3.4,8,0.00,,---,0.00,VWS V14.01,2013-11-02 20:46:00,
2013-11-02 13:47:00,97.0,26.0,29.68,WSW,248,4.0,4.0,8,0.00,,---,0.00,VWS V14.01,2013-11-02 20:47:00,
2013-11-02 13:48:00,96.6,28.6,29.68,West,270,2.0,4.3,9,0.00,,---,0.00,VWS V14.01,2013-11-02 20:48:00,
2013-11-02 13:49:00,96.8,25.9,29.68,SSW,202,1.1,1.3,8,0.00,,---,0.00,VWS V14.01,2013-11-02 20:49:00,
2013-11-02 13:50:00,96.8,25.9,29.68,SSW,202,1.1,1.3,8,0.00,,---,0.00,VWS V14.01,2013-11-02 20:50:00,
2013-11-02 13:51:00,97.0,26.0,29.68,SSW,202,1.1,3.8,8,0.00,,---,0.00,VWS V14.01,2013-11-02 20:51:00,
2013-11-02 13:52:00,97.0,26.0,29.68,SSE,158,2.0,2.5,8,0.00,,---,0.00,VWS V14.01,2013-11-02 20:52:00,
2013-11-02 13:53:00,97.0,26.0,29.68,WSW,248,1.3,2.0,8,0.00,,---,0.00,VWS V14.01,2013-11-02 20:53:00,
2013-11-02 13:54:00,97.3,26.3,29.68,West,270,2.9,2.9,8,0.00,,---,0.00,VWS V14.01,2013-11-02 20:54:00,
2013-11-02 13:55:00,97.5,26.4,29.68,West,270,3.4,3.4,8,0.00,,---,0.00,VWS V14.01,2013-11-02 20:55:00,
2013-11-02 13:56:00,97.5,26.4,29.68,NE,45,1.6,3.4,8,0.00,,---,0.00,VWS V14.01,2013-11-02 20:56:00,
2013-11-02 13:57:00,97.9,26.7,29.68,North,0,0.0,1.6,8,0.00,,---,0.00,VWS V14.01,2013-11-02 20:57:00,
2013-11-02 13:58:00,98.4,27.1,29.68,WSW,248,1.1,1.1,8,0.00,,---,0.00,VWS V14.01,2013-11-02 20:58:00,
2013-11-02 13:59:00,98.2,26.9,29.68,West,270,2.0,2.0,8,0.00,,---,0.00,VWS V14.01,2013-11-02 20:59:00,
2013-11-02 14:00:00,98.1,26.8,29.68,West,270,2.0,2.7,8,0.00,,---,0.00,VWS V14.01,2013-11-02 21:00:00,
2013-11-02 14:01:00,98.1,26.8,29.68,WNW,292,0.9,2.2,8,0.00,,---,0.00,VWS V14.01,2013-11-02 21:01:00,
2013-11-02 14:02:00,98.2,26.9,29.68,West,270,4.0,5.4,8,0.00,,---,0.00,VWS V14.01,2013-11-02 21:02:00,
2013-11-02 14:03:00,97.7,26.5,29.68,West,270,3.1,4.7,8,0.00,,---,0.00,VWS V14.01,2013-11-02 21:03:00,
2013-11-02 14:04:00,97.9,26.7,29.68,South,180,2.0,3.1,8,0.00,,---,0.00,VWS V14.01,2013-11-02 21:04:00,
2013-11-02 14:05:00,97.9,26.7,29.68,SSE,158,2.2,3.1,8,0.00,,---,0.00,VWS V14.01,2013-11-02 21:05:00,
2013-11-02 14:06:00,97.9,26.7,29.68,South,180,3.1,3.1,8,0.00,,---,0.00,VWS V14.01,2013-11-02 21:06:00,
2013-11-02 14:07:00,98.1,26.8,29.68,West,270,2.7,3.1,8,0.00,,---,0.00,VWS V14.01,2013-11-02 21:07:00,
2013-11-02 14:08:00,98.4,27.1,29.68,WNW,292,2.2,2.7,8,0.00,,---,0.00,VWS V14.01,2013-11-02 21:08:00,
2013-11-02 14:09:00,98.8,27.3,29.68,West,270,1.6,2.2,8,0.00,,---,0.00,VWS V14.01,2013-11-02 21:09:00,
2013-11-02 14:10:00,98.6,27.2,29.68,South,180,2.9,4.3,8,0.00,,---,0.00,VWS V14.01,2013-11-02 21:10:00,
2013-11-02 14:11:00,98.6,27.2,29.68,SSE,158,4.0,4.3,8,0.00,,---,0.00,VWS V14.01,2013-11-02 21:11:00,
2013-11-02 14:12:00,98.4,27.1,29.68,South,180,2.9,4.7,8,0.00,,---,0.00,VWS V14.01,2013-11-02 21:12:00,
2013-11-02 14:13:00,98.4,27.1,29.68,SE,135,2.9,3.4,8,0.00,,---,0.00,VWS V14.01,2013-11-02 21:13:00,
2013-11-02 14:14:00,98.4,27.1,29.68,WSW,248,2.9,2.9,8,0.00,,---,0.00,VWS V14.01,2013-11-02 21:14:00,
2013-11-02 14:15:00,98.4,27.1,29.68,West,270,0.0,2.9,8,0.00,,---,0.00,VWS V14.01,2013-11-02 21:15:00,
2013-11-02 14:16:00,99.1,27.6,29.68,West,270,2.0,2.9,8,0.00,,---,0.00,VWS V14.01,2013-11-02 21:16:00,
2013-11-02 14:17:00,99.1,27.6,29.68,NNW,338,2.9,2.9,8,0.00,,---,0.00,VWS V14.01,2013-11-02 21:17:00,
2013-11-02 14:18:00,99.1,27.6,29.68,West,270,3.8,4.3,8,0.00,,---,0.00,VWS V14.01,2013-11-02 21:18:00,
2013-11-02 14:19:00,98.6,27.2,29.68,West,270,3.6,3.8,8,0.00,,---,0.00,VWS V14.01,2013-11-02 21:19:00,
2013-11-02 14:20:00,97.7,26.5,29.68,WSW,248,3.1,5.6,8,0.00,,---,0.00,VWS V14.01,2013-11-02 21:20:00,
2013-11-02 14:21:00,97.7,26.5,29.68,WSW,248,2.9,5.6,8,0.00,,---,0.00,VWS V14.01,2013-11-02 21:21:00,
2013-11-02 14:22:00,97.0,26.0,29.68,WSW,248,5.6,6.0,8,0.00,,---,0.00,VWS V14.01,2013-11-02 21:22:00,
2013-11-02 14:23:00,96.4,28.5,29.68,WSW,248,5.4,5.6,9,0.00,,---,0.00,VWS V14.01,2013-11-02 21:23:00,
2013-11-02 14:24:00,96.1,28.2,29.68,WNW,292,3.6,5.4,9,0.00,,---,0.00,VWS V14.01,2013-11-02 21:24:00,
2013-11-02 14:25:00,96.3,28.3,29.68,WSW,248,3.4,4.3,9,0.00,,---,0.00,VWS V14.01,2013-11-02 21:25:00,
2013-11-02 14:26:00,96.3,28.3,29.68,West,270,4.3,4.3,9,0.00,,---,0.00,VWS V14.01,2013-11-02 21:26:00,
2013-11-02 14:27:00,96.6,28.6,29.68,West,270,1.6,4.3,9,0.00,,---,0.00,VWS V14.01,2013-11-02 21:27:00,
2013-11-02 14:28:00,97.2,26.1,29.68,SSW,202,3.8,4.7,8,0.00,,---,0.00,VWS V14.01,2013-11-02 21:28:00,
2013-11-02 14:29:00,97.5,26.4,29.68,WNW,292,1.1,3.8,8,0.00,,---,0.00,VWS V14.01,2013-11-02 21:29:00,
2013-11-02 14:30:00,97.5,26.4,29.68,WSW,248,1.1,1.3,8,0.00,,---,0.00,VWS V14.01,2013-11-02 21:30:00,
2013-11-02 14:31:00,97.5,26.4,29.68,WSW,248,2.5,3.1,8,0.00,,---,0.00,VWS V14.01,2013-11-02 21:31:00,
2013-11-02 14:32:00,96.8,25.9,29.68,SSW,202,1.3,2.7,8,0.00,,---,0.00,VWS V14.01,2013-11-02 21:32:00,
2013-11-02 14:33:00,97.0,26.0,29.68,WSW,248,1.6,2.0,8,0.00,,---,0.00,VWS V14.01,2013-11-02 21:33:00,
2013-11-02 14:34:00,97.2,26.1,29.68,SSE,158,4.3,4.3,8,0.00,,---,0.00,VWS V14.01,2013-11-02 21:34:00,
2013-11-02 14:35:00,96.6,28.6,29.68,SE,135,3.1,3.1,9,0.00,,---,0.00,VWS V14.01,2013-11-02 21:35:00,
2013-11-02 14:36:00,96.4,28.5,29.68,South,180,3.8,3.8,9,0.00,,---,0.00,VWS V14.01,2013-11-02 21:36:00,
2013-11-02 14:37:00,96.4,28.5,29.68,SSE,158,4.9,4.9,9,0.00,,---,0.00,VWS V14.01,2013-11-02 21:37:00,
2013-11-02 14:39:00,96.8,25.9,29.68,WSW,248,0.9,4.9,8,0.00,,---,0.00,VWS V14.01,2013-11-02 21:39:00,
2013-11-02 14:40:00,96.4,28.5,29.68,WSW,248,4.9,5.6,9,0.00,,---,0.00,VWS V14.01,2013-11-02 21:40:00,
2013-11-02 14:41:00,96.4,28.5,29.68,West,270,3.8,5.6,9,0.00,,---,0.00,VWS V14.01,2013-11-02 21:41:00,
2013-11-02 14:42:00,95.7,27.9,29.68,WNW,292,3.4,3.8,9,0.00,,---,0.00,VWS V14.01,2013-11-02 21:42:00,
2013-11-02 14:43:00,95.5,27.8,29.68,West,270,4.0,6.5,9,0.00,,---,0.00,VWS V14.01,2013-11-02 21:43:00,
2013-11-02 14:44:00,95.5,27.8,29.68,WSW,248,3.8,5.6,9,0.00,,---,0.00,VWS V14.01,2013-11-02 21:44:00,
2013-11-02 14:45:00,95.4,27.7,29.68,WNW,292,3.4,3.4,9,0.00,,---,0.00,VWS V14.01,2013-11-02 21:45:00,
2013-11-02 14:46:00,95.4,27.7,29.68,WNW,292,3.6,3.6,9,0.00,,---,0.00,VWS V14.01,2013-11-02 21:46:00,
2013-11-02 14:47:00,95.4,27.7,29.68,West,270,5.8,5.8,9,0.00,,---,0.00,VWS V14.01,2013-11-02 21:47:00,
2013-11-02 14:48:00,95.4,27.7,29.68,West,270,5.6,5.8,9,0.00,,---,0.00,VWS V14.01,2013-11-02 21:48:00,
2013-11-02 14:49:00,94.5,27.0,29.68,West,270,4.0,7.4,9,0.00,,---,0.00,VWS V14.01,2013-11-02 21:49:00,
2013-11-02 14:50:00,95.2,27.5,29.68,WNW,292,2.5,2.7,9,0.00,,---,0.00,VWS V14.01,2013-11-02 21:50:00,
2013-11-02 14:51:00,95.5,27.8,29.68,WNW,292,2.9,2.9,9,0.00,,---,0.00,VWS V14.01,2013-11-02 21:51:00,
2013-11-02 14:52:00,96.1,28.2,29.68,West,270,0.0,2.9,9,0.00,,---,0.00,VWS V14.01,2013-11-02 21:52:00,
2013-11-02 14:53:00,96.6,28.6,29.68,WNW,292,2.9,2.9,9,0.00,,---,0.00,VWS V14.01,2013-11-02 21:53:00,
2013-11-02 14:54:00,96.6,28.6,29.68,West,270,1.1,2.9,9,0.00,,---,0.00,VWS V14.01,2013-11-02 21:54:00,
2013-11-02 14:55:00,96.6,28.6,29.68,West,270,6.5,6.5,9,0.00,,---,0.00,VWS V14.01,2013-11-02 21:55:00,
2013-11-02 14:56:00,96.6,28.6,29.68,WSW,248,6.5,6.5,9,0.00,,---,0.00,VWS V14.01,2013-11-02 21:56:00,
2013-11-02 14:57:00,95.7,27.9,29.68,WSW,248,2.7,6.5,9,0.00,,---,0.00,VWS V14.01,2013-11-02 21:57:00,
2013-11-02 14:58:00,95.4,27.7,29.68,NW,315,3.8,4.0,9,0.00,,---,0.00,VWS V14.01,2013-11-02 21:58:00,
2013-11-02 14:59:00,95.4,27.7,29.68,WNW,292,3.1,3.8,9,0.00,,---,0.00,VWS V14.01,2013-11-02 21:59:00,
2013-11-02 15:00:00,95.7,27.9,29.68,WNW,292,1.3,3.8,9,0.00,,---,0.00,VWS V14.01,2013-11-02 22:00:00,
2013-11-02 15:01:00,95.7,27.9,29.68,WNW,292,2.0,3.8,9,0.00,,---,0.00,VWS V14.01,2013-11-02 22:01:00,
2013-11-02 15:02:00,95.4,27.7,29.68,WNW,292,2.9,4.3,9,0.00,,---,0.00,VWS V14.01,2013-11-02 22:02:00,
2013-11-02 15:03:00,95.9,28.1,29.68,West,270,5.4,5.4,9,0.00,,---,0.00,VWS V14.01,2013-11-02 22:03:00,
2013-11-02 15:04:00,95.9,28.1,29.68,West,270,4.3,5.4,9,0.00,,---,0.00,VWS V14.01,2013-11-02 22:04:00,
2013-11-02 15:05:00,95.9,28.1,29.68,South,180,1.3,2.5,9,0.00,,---,0.00,VWS V14.01,2013-11-02 22:05:00,
2013-11-02 15:06:00,95.9,28.1,29.68,West,270,0.0,2.5,9,0.00,,---,0.00,VWS V14.01,2013-11-02 22:06:00,
2013-11-02 15:07:00,96.3,28.3,29.68,West,270,2.9,2.9,9,0.00,,---,0.00,VWS V14.01,2013-11-02 22:07:00,
2013-11-02 15:08:00,95.9,28.1,29.68,WSW,248,4.0,5.4,9,0.00,,---,0.00,VWS V14.01,2013-11-02 22:08:00,
2013-11-02 15:09:00,95.5,27.8,29.68,WNW,292,3.4,4.0,9,0.00,,---,0.00,VWS V14.01,2013-11-02 22:09:00,
2013-11-02 15:10:00,95.4,27.7,29.68,NNW,338,2.9,3.6,9,0.00,,---,0.00,VWS V14.01,2013-11-02 22:10:00,
2013-11-02 15:11:00,95.2,27.5,29.68,West,270,3.1,3.1,9,0.00,,---,0.00,VWS V14.01,2013-11-02 22:11:00,
2013-11-02 15:12:00,95.2,27.5,29.68,WNW,292,4.7,4.7,9,0.00,,---,0.00,VWS V14.01,2013-11-02 22:12:00,
2013-11-02 15:13:00,94.6,27.1,29.68,WNW,292,4.9,4.9,9,0.00,,---,0.00,VWS V14.01,2013-11-02 22:13:00,
2013-11-02 15:14:00,94.1,26.7,29.68,West,270,3.6,4.9,9,0.00,,---,0.00,VWS V14.01,2013-11-02 22:14:00,
2013-11-02 15:15:00,94.1,26.7,29.68,West,270,4.3,5.4,9,0.00,,---,0.00,VWS V14.01,2013-11-02 22:15:00,
2013-11-02 15:16:00,94.1,26.7,29.68,West,270,2.0,4.3,9,0.00,,---,0.00,VWS V14.01,2013-11-02 22:16:00,
2013-11-02 15:17:00,93.9,26.6,29.65,NNW,338,6.0,6.0,9,0.00,,---,0.00,VWS V14.01,2013-11-02 22:17:00,
2013-11-02 15:18:00,94.1,26.7,29.65,NW,315,3.4,6.0,9,0.00,,---,0.00,VWS V14.01,2013-11-02 22:18:00,
2013-11-02 15:19:00,94.5,27.0,29.65,WNW,292,4.7,4.9,9,0.00,,---,0.00,VWS V14.01,2013-11-02 22:19:00,
2013-11-02 15:20:00,94.3,26.9,29.65,West,270,2.9,4.9,9,0.00,,---,0.00,VWS V14.01,2013-11-02 22:20:00,
2013-11-02 15:21:00,94.3,26.9,29.65,West,270,2.9,2.9,9,0.00,,---,0.00,VWS V14.01,2013-11-02 22:21:00,
2013-11-02 15:22:00,94.8,27.3,29.65,WSW,248,3.1,3.1,9,0.00,,---,0.00,VWS V14.01,2013-11-02 22:22:00,
2013-11-02 15:23:00,94.8,27.3,29.65,South,180,5.6,5.6,9,0.00,,---,0.00,VWS V14.01,2013-11-02 22:23:00,
2013-11-02 15:24:00,94.8,27.3,29.65,WSW,248,4.0,5.6,9,0.00,,---,0.00,VWS V14.01,2013-11-02 22:24:00,
2013-11-02 15:25:00,94.5,27.0,29.65,WNW,292,3.6,4.9,9,0.00,,---,0.00,VWS V14.01,2013-11-02 22:25:00,
2013-11-02 15:26:00,94.5,27.0,29.65,WSW,248,4.3,4.3,9,0.00,,---,0.00,VWS V14.01,2013-11-02 22:26:00,
2013-11-02 15:27:00,94.5,27.0,29.65,WSW,248,2.7,4.3,9,0.00,,---,0.00,VWS V14.01,2013-11-02 22:27:00,
2013-11-02 15:28:00,94.5,27.0,29.65,WSW,248,2.5,3.8,9,0.00,,---,0.00,VWS V14.01,2013-11-02 22:28:00,
2013-11-02 15:29:00,94.6,27.1,29.65,WNW,292,2.7,3.1,9,0.00,,---,0.00,VWS V14.01,2013-11-02 22:29:00,
2013-11-02 15:30:00,94.6,27.1,29.65,NW,315,2.2,3.8,9,0.00,,---,0.00,VWS V14.01,2013-11-02 22:30:00,
2013-11-02 15:31:00,95.0,27.4,29.65,West,270,2.5,2.5,9,0.00,,---,0.00,VWS V14.01,2013-11-02 22:31:00,
2013-11-02 15:32:00,95.2,27.5,29.62,West,270,3.4,3.6,9,0.00,,---,0.00,VWS V14.01,2013-11-02 22:32:00,
2013-11-02 15:33:00,95.4,27.7,29.62,West,270,1.1,3.4,9,0.00,,---,0.00,VWS V14.01,2013-11-02 22:33:00,
2013-11-02 15:34:00,95.4,27.7,29.62,West,270,1.1,1.1,9,0.00,,---,0.00,VWS V14.01,2013-11-02 22:34:00,
2013-11-02 15:35:00,95.4,27.7,29.62,NNW,338,2.5,2.7,9,0.00,,---,0.00,VWS V14.01,2013-11-02 22:35:00,
2013-11-02 15:36:00,95.5,27.8,29.62,North,0,2.7,2.7,9,0.00,,---,0.00,VWS V14.01,2013-11-02 22:36:00,
2013-11-02 15:37:00,95.5,27.8,29.62,WNW,292,1.6,2.7,9,0.00,,---,0.00,VWS V14.01,2013-11-02 22:37:00,
2013-11-02 15:38:00,95.5,27.8,29.62,NW,315,1.6,4.0,9,0.00,,---,0.00,VWS V14.01,2013-11-02 22:38:00,
2013-11-02 15:39:00,95.7,27.9,29.62,North,0,2.7,2.7,9,0.00,,---,0.00,VWS V14.01,2013-11-02 22:39:00,
2013-11-02 15:40:00,95.5,27.8,29.62,NNW,338,2.9,3.6,9,0.00,,---,0.00,VWS V14.01,2013-11-02 22:40:00,
2013-11-02 15:41:00,95.7,27.9,29.62,NW,315,1.6,2.9,9,0.00,,---,0.00,VWS V14.01,2013-11-02 22:41:00,
2013-11-02 15:42:00,95.7,27.9,29.62,NNW,338,2.2,2.9,9,0.00,,---,0.00,VWS V14.01,2013-11-02 22:42:00,
2013-11-02 15:43:00,95.7,27.9,29.62,NW,315,2.9,2.9,9,0.00,,---,0.00,VWS V14.01,2013-11-02 22:43:00,
2013-11-02 15:44:00,95.7,27.9,29.62,NNE,22,1.1,2.9,9,0.00,,---,0.00,VWS V14.01,2013-11-02 22:44:00,
2013-11-02 15:45:00,95.7,27.9,29.62,WNW,292,0.0,1.1,9,0.00,,---,0.00,VWS V14.01,2013-11-02 22:45:00,
2013-11-02 15:46:00,95.9,28.1,29.62,WSW,248,2.0,2.0,9,0.00,,---,0.00,VWS V14.01,2013-11-02 22:46:00,
2013-11-02 15:47:00,95.9,28.1,29.62,SSE,158,1.6,2.9,9,0.00,,---,0.00,VWS V14.01,2013-11-02 22:47:00,
2013-11-02 15:48:00,95.9,28.1,29.62,SSE,158,1.6,1.6,9,0.00,,---,0.00,VWS V14.01,2013-11-02 22:48:00,
2013-11-02 15:49:00,95.5,27.8,29.62,SSW,202,1.3,2.7,9,0.00,,---,0.00,VWS V14.01,2013-11-02 22:49:00,
2013-11-02 15:50:00,95.7,27.9,29.62,WNW,292,1.6,1.6,9,0.00,,---,0.00,VWS V14.01,2013-11-02 22:50:00,
2013-11-02 15:51:00,95.9,28.1,29.62,WSW,248,3.1,3.1,9,0.00,,---,0.00,VWS V14.01,2013-11-02 22:51:00,
2013-11-02 15:52:00,95.7,27.9,29.62,SSW,202,2.2,3.1,9,0.00,,---,0.00,VWS V14.01,2013-11-02 22:52:00,
2013-11-02 15:53:00,95.7,27.9,29.62,ESE,112,2.2,2.9,9,0.00,,---,0.00,VWS V14.01,2013-11-02 22:53:00,
2013-11-02 15:55:00,95.7,27.9,29.62,South,180,1.6,2.5,9,0.00,,---,0.00,VWS V14.01,2013-11-02 22:55:00,
2013-11-02 15:56:00,95.0,27.4,29.62,South,180,2.2,2.2,9,0.00,,---,0.00,VWS V14.01,2013-11-02 22:56:00,
2013-11-02 15:57:00,95.0,27.4,29.62,SSE,158,2.5,2.5,9,0.00,,---,0.00,VWS V14.01,2013-11-02 22:57:00,
2013-11-02 15:58:00,95.0,27.4,29.62,West,270,2.0,2.5,9,0.00,,---,0.00,VWS V14.01,2013-11-02 22:58:00,
2013-11-02 15:59:00,95.2,27.5,29.62,SE,135,1.1,2.5,9,0.00,,---,0.00,VWS V14.01,2013-11-02 22:59:00,
2013-11-02 16:00:00,95.4,27.7,29.62,SE,135,1.6,1.6,9,0.00,,---,0.00,VWS V14.01,2013-11-02 23:00:00,
2013-11-02 16:01:00,95.4,27.7,29.62,SSW,202,1.1,1.6,9,0.00,,---,0.00,VWS V14.01,2013-11-02 23:01:00,
2013-11-02 16:02:00,95.2,27.5,29.62,West,270,2.7,3.6,9,0.00,,---,0.00,VWS V14.01,2013-11-02 23:02:00,
2013-11-02 16:03:00,95.2,27.5,29.62,WSW,248,1.6,2.7,9,0.00,,---,0.00,VWS V14.01,2013-11-02 23:03:00,
2013-11-02 16:04:00,95.2,27.5,29.62,South,180,2.7,3.8,9,0.00,,---,0.00,VWS V14.01,2013-11-02 23:04:00,
2013-11-02 16:05:00,95.0,27.4,29.62,NW,315,5.8,6.5,9,0.00,,---,0.00,VWS V14.01,2013-11-02 23:05:00,
2013-11-02 16:06:00,94.6,27.1,29.62,West,270,3.8,5.8,9,0.00,,---,0.00,VWS V14.01,2013-11-02 23:06:00,
2013-11-02 16:07:00,93.7,26.5,29.62,WSW,248,3.8,5.4,9,0.00,,---,0.00,VWS V14.01,2013-11-02 23:07:00,
2013-11-02 16:08:00,93.7,26.5,29.62,WNW,292,4.0,5.8,9,0.00,,---,0.00,VWS V14.01,2013-11-02 23:08:00,
2013-11-02 16:09:00,93.2,26.1,29.62,WNW,292,3.1,4.5,9,0.00,,---,0.00,VWS V14.01,2013-11-02 23:09:00,
2013-11-02 16:10:00,93.4,26.2,29.62,West,270,4.3,5.4,9,0.00,,---,0.00,VWS V14.01,2013-11-02 23:10:00,
2013-11-02 16:11:00,93.0,25.9,29.62,West,270,4.0,4.7,9,0.00,,---,0.00,VWS V14.01,2013-11-02 23:11:00,
2013-11-02 16:12:00,93.0,25.9,29.62,WNW,292,3.6,4.7,9,0.00,,---,0.00,VWS V14.01,2013-11-02 23:12:00,
2013-11-02 16:13:00,93.0,25.9,29.62,WSW,248,4.3,4.7,9,0.00,,---,0.00,VWS V14.01,2013-11-02 23:13:00,
2013-11-02 16:14:00,92.7,25.6,29.62,West,270,3.8,4.3,9,0.00,,---,0.00,VWS V14.01,2013-11-02 23:14:00,
2013-11-02 16:15:00,92.7,25.6,29.62,West,270,3.1,6.0,9,0.00,,---,0.00,VWS V14.01,2013-11-02 23:15:00,
2013-11-02 16:16:00,91.9,25.1,29.62,SW,225,5.8,8.5,9,0.00,,---,0.00,VWS V14.01,2013-11-02 23:16:00,
2013-11-02 16:17:00,91.9,25.1,29.62,West,270,4.7,8.5,9,0.00,,---,0.00,VWS V14.01,2013-11-02 23:17:00,
2013-11-02 16:18:00,91.8,25.0,29.62,SSW,202,3.4,4.7,9,0.00,,---,0.00,VWS V14.01,2013-11-02 23:18:00,
2013-11-02 16:19:00,91.9,25.1,29.62,West,270,3.8,4.3,9,0.00,,---,0.00,VWS V14.01,2013-11-02 23:19:00,
2013-11-02 16:20:00,91.8,25.0,29.62,West,270,4.0,6.3,9,0.00,,---,0.00,VWS V14.01,2013-11-02 23:20:00,
2013-11-02 16:21:00,91.6,24.8,29.62,WNW,292,4.3,5.8,9,0.00,,---,0.00,VWS V14.01,2013-11-02 23:21:00,
2013-11-02 16:22:00,91.4,24.7,29.62,WSW,248,2.5,5.8,9,0.00,,---,0.00,VWS V14.01,2013-11-02 23:22:00,
2013-11-02 16:23:00,91.6,24.8,29.62,NNW,338,4.0,4.9,9,0.00,,---,0.00,VWS V14.01,2013-11-02 23:23:00,
2013-11-02 16:24:00,91.6,24.8,29.62,WSW,248,3.1,4.0,9,0.00,,---,0.00,VWS V14.01,2013-11-02 23:24:00,
2013-11-02 16:25:00,91.4,24.7,29.62,WNW,292,3.1,5.8,9,0.00,,---,0.00,VWS V14.01,2013-11-02 23:25:00,
2013-11-02 16:26:00,91.4,24.7,29.62,West,270,4.3,4.3,9,0.00,,---,0.00,VWS V14.01,2013-11-02 23:26:00,
2013-11-02 16:27:00,91.4,24.7,29.62,WSW,248,3.8,3.8,9,0.00,,---,0.00,VWS V14.01,2013-11-02 23:27:00,
2013-11-02 16:28:00,91.2,27.1,29.62,West,270,3.1,4.5,10,0.00,,---,0.00,VWS V14.01,2013-11-02 23:28:00,
2013-11-02 16:29:00,91.4,24.7,29.62,West,270,2.0,3.4,9,0.00,,---,0.00,VWS V14.01,2013-11-02 23:29:00,
2013-11-02 16:30:00,91.2,27.1,29.62,West,270,5.4,6.5,10,0.00,,---,0.00,VWS V14.01,2013-11-02 23:30:00,
2013-11-02 16:31:00,91.0,27.0,29.59,West,270,4.0,4.9,10,0.00,,---,0.00,VWS V14.01,2013-11-02 23:31:00,
2013-11-02 16:32:00,91.0,27.0,29.59,West,270,5.8,5.8,10,0.00,,---,0.00,VWS V14.01,2013-11-02 23:32:00,
2013-11-02 16:33:00,90.9,26.8,29.59,NW,315,3.8,5.8,10,0.00,,---,0.00,VWS V14.01,2013-11-02 23:33:00,
2013-11-02 16:34:00,90.9,26.8,29.59,WSW,248,4.3,4.9,10,0.00,,---,0.00,VWS V14.01,2013-11-02 23:34:00,
2013-11-02 16:35:00,90.7,26.7,29.59,West,270,3.6,4.3,10,0.00,,---,0.00,VWS V14.01,2013-11-02 23:35:00,
2013-11-02 16:36:00,90.7,26.7,29.59,WNW,292,4.0,4.0,10,0.00,,---,0.00,VWS V14.01,2013-11-02 23:36:00,
2013-11-02 16:37:00,90.7,18.2,29.59,West,270,3.1,4.0,7,0.00,,---,0.00,VWS V14.01,2013-11-02 23:37:00,
2013-11-02 16:38:00,90.5,18.1,29.59,WSW,248,3.8,3.8,7,0.00,,---,0.00,VWS V14.01,2013-11-02 23:38:00,
2013-11-02 16:39:00,90.5,18.1,29.59,WSW,248,3.4,4.0,7,0.00,,---,0.00,VWS V14.01,2013-11-02 23:39:00,
2013-11-02 16:40:00,90.5,18.1,29.59,WNW,292,3.4,4.3,7,0.00,,---,0.00,VWS V14.01,2013-11-02 23:40:00,
2013-11-02 16:41:00,90.1,17.9,29.59,West,270,4.3,5.6,7,0.00,,---,0.00,VWS V14.01,2013-11-02 23:41:00,
2013-11-02 16:42:00,90.1,17.9,29.59,West,270,3.6,5.6,7,0.00,,---,0.00,VWS V14.01,2013-11-02 23:42:00,
2013-11-02 16:43:00,90.1,17.9,29.59,West,270,3.8,5.8,7,0.00,,---,0.00,VWS V14.01,2013-11-02 23:43:00,
2013-11-02 16:44:00,89.8,17.6,29.59,West,270,3.6,4.7,7,0.00,,---,0.00,VWS V14.01,2013-11-02 23:44:00,
2013-11-02 16:45:00,89.6,17.5,29.59,West,270,2.9,4.9,7,0.00,,---,0.00,VWS V14.01,2013-11-02 23:45:00,
2013-11-02 16:46:00,89.6,17.5,29.59,WSW,248,4.9,4.9,7,0.00,,---,0.00,VWS V14.01,2013-11-02 23:46:00,
2013-11-02 16:47:00,89.6,17.5,29.59,WSW,248,4.7,4.9,7,0.00,,---,0.00,VWS V14.01,2013-11-02 23:47:00,
2013-11-02 16:48:00,89.2,20.3,29.62,WSW,248,3.6,4.7,8,0.00,,---,0.00,VWS V14.01,2013-11-02 23:48:00,
2013-11-02 16:49:00,89.2,20.3,29.62,WSW,248,3.4,3.6,8,0.00,,---,0.00,VWS V14.01,2013-11-02 23:49:00,
2013-11-02 16:50:00,89.2,20.3,29.62,West,270,2.0,4.3,8,0.00,,---,0.00,VWS V14.01,2013-11-02 23:50:00,
2013-11-02 16:51:00,89.2,20.3,29.62,West,270,1.6,3.6,8,0.00,,---,0.00,VWS V14.01,2013-11-02 23:51:00,
2013-11-02 16:52:00,89.2,20.3,29.62,WSW,248,2.7,3.6,8,0.00,,---,0.00,VWS V14.01,2013-11-02 23:52:00,
2013-11-02 16:53:00,89.1,20.2,29.62,West,270,2.7,3.4,8,0.00,,---,0.00,VWS V14.01,2013-11-02 23:53:00,
2013-11-02 16:54:00,89.1,20.2,29.62,West,270,2.7,2.7,8,0.00,,---,0.00,VWS V14.01,2013-11-02 23:54:00,
2013-11-02 16:55:00,89.1,20.2,29.62,WSW,248,3.4,3.4,8,0.00,,---,0.00,VWS V14.01,2013-11-02 23:55:00,
2013-11-02 16:56:00,88.9,20.0,29.62,WSW,248,4.0,4.0,8,0.00,,---,0.00,VWS V14.01,2013-11-02 23:56:00,
2013-11-02 16:57:00,88.9,20.0,29.62,West,270,4.3,4.3,8,0.00,,---,0.00,VWS V14.01,2013-11-02 23:57:00,
2013-11-02 16:58:00,88.7,19.9,29.62,WNW,292,2.5,4.3,8,0.00,,---,0.00,VWS V14.01,2013-11-02 23:58:00,
2013-11-02 16:59:00,88.5,19.8,29.62,WSW,248,1.6,2.5,8,0.00,,---,0.00,VWS V14.01,2013-11-02 23:59:00,
2013-11-02 17:00:00,88.5,19.8,29.62,West,270,2.7,2.7,8,0.00,,---,0.00,VWS V14.01,2013-11-03 00:00:00,
2013-11-02 17:01:00,88.3,19.6,29.65,WNW,292,3.1,3.1,8,0.00,,---,0.00,VWS V14.01,2013-11-03 00:01:00,
2013-11-02 17:02:00,88.3,19.6,29.65,WNW,292,3.1,3.1,8,0.00,,---,0.00,VWS V14.01,2013-11-03 00:02:00,
2013-11-02 17:03:00,88.3,19.6,29.65,WSW,248,2.9,3.1,8,0.00,,---,0.00,VWS V14.01,2013-11-03 00:03:00,
2013-11-02 17:04:00,88.2,19.5,29.65,West,270,2.0,2.9,8,0.00,,---,0.00,VWS V14.01,2013-11-03 00:04:00,
2013-11-02 17:05:00,88.2,19.5,29.65,NW,315,1.1,2.5,8,0.00,,---,0.00,VWS V14.01,2013-11-03 00:05:00,
2013-11-02 17:06:00,88.0,19.4,29.65,WNW,292,1.1,2.0,8,0.00,,---,0.00,VWS V14.01,2013-11-03 00:06:00,
2013-11-02 17:07:00,87.8,19.2,29.65,West,270,2.7,2.7,8,0.00,,---,0.00,VWS V14.01,2013-11-03 00:07:00,
2013-11-02 17:08:00,87.8,19.2,29.65,West,270,1.1,2.7,8,0.00,,---,0.00,VWS V14.01,2013-11-03 00:08:00,
2013-11-02 17:09:00,87.4,19.0,29.65,WNW,292,1.6,2.9,8,0.00,,---,0.00,VWS V14.01,2013-11-03 00:09:00,
2013-11-02 17:10:00,87.4,19.0,29.65,NW,315,0.9,2.2,8,0.00,,---,0.00,VWS V14.01,2013-11-03 00:10:00,
2013-11-02 17:11:00,87.4,19.0,29.65,NW,315,1.1,1.1,8,0.00,,---,0.00,VWS V14.01,2013-11-03 00:11:00,
2013-11-02 17:12:00,86.7,18.5,29.65,NW,315,1.3,1.3,8,0.00,,---,0.00,VWS V14.01,2013-11-03 00:12:00,
2013-11-02 17:13:00,86.5,18.3,29.65,West,270,2.0,2.2,8,0.00,,---,0.00,VWS V14.01,2013-11-03 00:13:00,
2013-11-02 17:14:00,85.8,17.8,29.65,WNW,292,0.9,2.2,8,0.00,,---,0.00,VWS V14.01,2013-11-03 00:14:00,
2013-11-02 17:15:00,85.8,17.8,29.65,WNW,292,1.6,1.6,8,0.00,,---,0.00,VWS V14.01,2013-11-03 00:15:00,
2013-11-02 17:16:00,85.1,17.2,29.65,WSW,248,2.0,2.5,8,0.00,,---,0.00,VWS V14.01,2013-11-03 00:16:00,
2013-11-02 17:17:00,84.7,17.0,29.62,West,270,1.3,2.7,8,0.00,,---,0.00,VWS V14.01,2013-11-03 00:17:00,
2013-11-02 17:18:00,84.6,16.9,29.62,WNW,292,0.9,1.3,8,0.00,,---,0.00,VWS V14.01,2013-11-03 00:18:00,
2013-11-02 17:19:00,84.2,16.6,29.62,WNW,292,0.9,1.1,8,0.00,,---,0.00,VWS V14.01,2013-11-03 00:19:00,
2013-11-02 17:20:00,84.2,16.6,29.62,WNW,292,0.9,0.9,8,0.00,,---,0.00,VWS V14.01,2013-11-03 00:20:00,
2013-11-02 17:21:00,84.2,16.6,29.62,WNW,292,1.6,1.6,8,0.00,,---,0.00,VWS V14.01,2013-11-03 00:21:00,
2013-11-02 17:22:00,83.1,18.5,29.62,WNW,292,0.0,1.6,9,0.00,,---,0.00,VWS V14.01,2013-11-03 00:22:00,
2013-11-02 17:23:00,82.9,18.4,29.62,WNW,292,0.0,0.0,9,0.00,,---,0.00,VWS V14.01,2013-11-03 00:23:00,
2013-11-02 17:24:00,82.8,18.2,29.62,WNW,292,0.0,0.0,9,0.00,,---,0.00,VWS V14.01,2013-11-03 00:24:00,
2013-11-02 17:25:00,82.4,18.0,29.62,WNW,292,0.0,0.0,9,0.00,,---,0.00,VWS V14.01,2013-11-03 00:25:00,
2013-11-02 17:26:00,82.2,17.8,29.62,WNW,292,0.0,0.0,9,0.00,,---,0.00,VWS V14.01,2013-11-03 00:26:00,
2013-11-02 17:27:00,82.0,17.7,29.62,WNW,292,0.0,0.0,9,0.00,,---,0.00,VWS V14.01,2013-11-03 00:27:00,
2013-11-02 17:28:00,81.7,17.4,29.62,WNW,292,0.0,0.0,9,0.00,,---,0.00,VWS V14.01,2013-11-03 00:28:00,
2013-11-02 17:29:00,81.5,17.3,29.62,WNW,292,0.0,0.0,9,0.00,,---,0.00,VWS V14.01,2013-11-03 00:29:00,
2013-11-02 17:30:00,81.0,16.9,29.62,WNW,292,0.0,0.0,9,0.00,,---,0.00,VWS V14.01,2013-11-03 00:30:00,
2013-11-02 17:31:00,80.8,16.7,29.62,WNW,292,0.0,0.0,9,0.00,,---,0.00,VWS V14.01,2013-11-03 00:31:00,
2013-11-02 17:32:00,80.6,16.6,29.62,WNW,292,0.0,0.0,9,0.00,,---,0.00,VWS V14.01,2013-11-03 00:32:00,
2013-11-02 17:33:00,80.6,16.6,29.62,WNW,292,0.0,0.0,9,0.00,,---,0.00,VWS V14.01,2013-11-03 00:33:00,
2013-11-02 17:34:00,80.2,18.8,29.62,WNW,292,0.0,0.0,10,0.00,,---,0.00,VWS V14.01,2013-11-03 00:34:00,
2013-11-02 17:35:00,79.7,18.4,29.62,WNW,292,0.0,0.0,10,0.00,,---,0.00,VWS V14.01,2013-11-03 00:35:00,
2013-11-02 17:36:00,79.7,18.4,29.62,WNW,292,0.0,0.0,10,0.00,,---,0.00,VWS V14.01,2013-11-03 00:36:00,
2013-11-02 17:37:00,79.3,18.1,29.62,WNW,292,0.0,0.0,10,0.00,,---,0.00,VWS V14.01,2013-11-03 00:37:00,
2013-11-02 17:38:00,79.2,18.0,29.62,WNW,292,0.0,0.0,10,0.00,,---,0.00,VWS V14.01,2013-11-03 00:38:00,
2013-11-02 17:39:00,79.0,17.8,29.62,WNW,292,0.0,0.0,10,0.00,,---,0.00,VWS V14.01,2013-11-03 00:39:00,
2013-11-02 17:40:00,78.8,17.7,29.62,WNW,292,0.0,0.0,10,0.00,,---,0.00,VWS V14.01,2013-11-03 00:40:00,
2013-11-02 17:41:00,78.6,17.5,29.62,WNW,292,0.0,0.0,10,0.00,,---,0.00,VWS V14.01,2013-11-03 00:41:00,
2013-11-02 17:42:00,78.6,17.5,29.62,WNW,292,0.0,0.0,10,0.00,,---,0.00,VWS V14.01,2013-11-03 00:42:00,
2013-11-02 17:43:00,78.4,17.4,29.62,WNW,292,0.0,0.0,10,0.00,,---,0.00,VWS V14.01,2013-11-03 00:43:00,
2013-11-02 17:44:00,78.1,17.1,29.62,West,270,0.0,0.0,10,0.00,,---,0.00,VWS V14.01,2013-11-03 00:44:00,
2013-11-02 17:45:00,78.1,17.1,29.62,West,270,0.0,0.0,10,0.00,,---,0.00,VWS V14.01,2013-11-03 00:45:00,
2013-11-02 17:46:00,77.9,17.0,29.62,West,270,0.0,1.3,10,0.00,,---,0.00,VWS V14.01,2013-11-03 00:46:00,
2013-11-02 17:47:00,77.9,17.0,29.62,West,270,0.9,1.3,10,0.00,,---,0.00,VWS V14.01,2013-11-03 00:47:00,
2013-11-02 17:48:00,77.7,16.9,29.62,West,270,1.6,2.2,10,0.00,,---,0.00,VWS V14.01,2013-11-03 00:48:00,
2013-11-02 17:49:00,77.7,16.9,29.62,West,270,0.9,1.6,10,0.00,,---,0.00,VWS V14.01,2013-11-03 00:49:00,
2013-11-02 17:50:00,77.5,16.7,29.62,West,270,1.1,1.1,10,0.00,,---,0.00,VWS V14.01,2013-11-03 00:50:00,
2013-11-02 17:51:00,77.5,16.7,29.62,West,270,1.1,1.6,10,0.00,,---,0.00,VWS V14.01,2013-11-03 00:51:00,
2013-11-02 17:52:00,77.2,16.5,29.62,West,270,1.3,1.3,10,0.00,,---,0.00,VWS V14.01,2013-11-03 00:52:00,
2013-11-02 17:53:00,77.2,16.5,29.62,WSW,248,1.3,1.3,10,0.00,,---,0.00,VWS V14.01,2013-11-03 00:53:00,
2013-11-02 17:54:00,77.0,16.3,29.62,WSW,248,0.0,1.3,10,0.00,,---,0.00,VWS V14.01,2013-11-03 00:54:00,
2013-11-02 17:55:00,77.0,16.3,29.62,WSW,248,1.1,1.1,10,0.00,,---,0.00,VWS V14.01,2013-11-03 00:55:00,
2013-11-02 17:56:00,76.8,16.2,29.62,WSW,248,0.0,1.1,10,0.00,,---,0.00,VWS V14.01,2013-11-03 00:56:00,
2013-11-02 17:57:00,76.6,16.0,29.62,WSW,248,0.0,0.0,10,0.00,,---,0.00,VWS V14.01,2013-11-03 00:57:00,
2013-11-02 17:58:00,76.6,16.0,29.62,West,270,0.0,0.0,10,0.00,,---,0.00,VWS V14.01,2013-11-03 00:58:00,
2013-11-02 17:59:00,76.3,15.8,29.62,West,270,0.0,0.0,10,0.00,,---,0.00,VWS V14.01,2013-11-03 00:59:00,
2013-11-02 18:00:00,76.1,15.6,29.62,West,270,0.0,0.0,10,0.00,,---,0.00,VWS V14.01,2013-11-03 01:00:00,
2013-11-02 18:01:00,76.1,15.6,29.62,West,270,0.0,0.0,10,0.00,,---,0.00,VWS V14.01,2013-11-03 01:01:00,
2013-11-02 18:02:00,76.1,15.6,29.62,West,270,2.5,2.5,10,0.00,,---,0.00,VWS V14.01,2013-11-03 01:02:00,
2013-11-02 18:03:00,75.9,15.5,29.62,West,270,1.1,2.5,10,0.00,,---,0.00,VWS V14.01,2013-11-03 01:03:00,
2013-11-02 18:04:00,75.9,15.5,29.62,West,270,0.0,1.1,10,0.00,,---,0.00,VWS V14.01,2013-11-03 01:04:00,
2013-11-02 18:05:00,75.7,15.4,29.62,West,270,0.0,0.0,10,0.00,,---,0.00,VWS V14.01,2013-11-03 01:05:00,
2013-11-02 18:06:00,75.6,15.2,29.62,West,270,0.0,0.0,10,0.00,,---,0.00,VWS V14.01,2013-11-03 01:06:00,
2013-11-02 18:07:00,75.2,14.9,29.62,SSE,158,0.0,0.0,10,0.00,,---,0.00,VWS V14.01,2013-11-03 01:07:00,
2013-11-02 18:08:00,75.0,17.0,29.62,South,180,0.0,0.0,11,0.00,,---,0.00,VWS V14.01,2013-11-03 01:08:00,
2013-11-02 18:09:00,75.0,17.0,29.62,SSW,202,0.0,0.0,11,0.00,,---,0.00,VWS V14.01,2013-11-03 01:09:00,
2013-11-02 18:10:00,75.0,17.0,29.62,SSW,202,0.0,0.0,11,0.00,,---,0.00,VWS V14.01,2013-11-03 01:10:00,
2013-11-02 18:11:00,74.7,16.7,29.62,SSW,202,0.0,0.0,11,0.00,,---,0.00,VWS V14.01,2013-11-03 01:11:00,
2013-11-02 18:12:00,74.7,16.7,29.62,SSW,202,0.0,0.0,11,0.00,,---,0.00,VWS V14.01,2013-11-03 01:12:00,
2013-11-02 18:13:00,74.7,16.7,29.62,SSW,202,0.0,0.0,11,0.00,,---,0.00,VWS V14.01,2013-11-03 01:13:00,
2013-11-02 18:14:00,74.7,16.7,29.62,South,180,0.0,1.1,11,0.00,,---,0.00,VWS V14.01,2013-11-03 01:14:00,
2013-11-02 18:15:00,74.1,16.3,29.62,South,180,0.0,0.0,11,0.00,,---,0.00,VWS V14.01,2013-11-03 01:15:00,
2013-11-02 18:16:00,73.9,16.1,29.62,SE,135,0.0,0.0,11,0.00,,---,0.00,VWS V14.01,2013-11-03 01:16:00,
2013-11-02 18:17:00,73.9,16.1,29.62,ESE,112,0.0,0.0,11,0.00,,---,0.00,VWS V14.01,2013-11-03 01:17:00,
2013-11-02 18:18:00,73.8,16.0,29.62,ESE,112,0.0,0.0,11,0.00,,---,0.00,VWS V14.01,2013-11-03 01:18:00,
2013-11-02 18:19:00,73.6,15.9,29.62,ESE,112,0.0,0.0,11,0.00,,---,0.00,VWS V14.01,2013-11-03 01:19:00,
2013-11-02 18:20:00,73.4,15.7,29.62,ESE,112,0.0,0.0,11,0.00,,---,0.00,VWS V14.01,2013-11-03 01:20:00,
2013-11-02 18:21:00,73.4,15.7,29.62,South,180,1.6,1.6,11,0.00,,---,0.00,VWS V14.01,2013-11-03 01:21:00,
2013-11-02 18:22:00,73.2,15.6,29.62,ESE,112,0.0,1.3,11,0.00,,---,0.00,VWS V14.01,2013-11-03 01:22:00,
2013-11-02 18:23:00,73.2,15.6,29.62,ESE,112,0.0,1.3,11,0.00,,---,0.00,VWS V14.01,2013-11-03 01:23:00,
2013-11-02 18:24:00,73.2,15.6,29.62,ESE,112,0.0,0.0,11,0.00,,---,0.00,VWS V14.01,2013-11-03 01:24:00,
2013-11-02 18:25:00,73.0,15.5,29.62,ESE,112,0.0,0.0,11,0.00,,---,0.00,VWS V14.01,2013-11-03 01:25:00,
2013-11-02 18:26:00,73.0,15.5,29.62,SE,135,0.0,0.0,11,0.00,,---,0.00,VWS V14.01,2013-11-03 01:26:00,
2013-11-02 18:27:00,72.9,15.3,29.62,SE,135,0.0,0.0,11,0.00,,---,0.00,VWS V14.01,2013-11-03 01:27:00,
2013-11-02 18:28:00,72.9,15.3,29.62,SE,135,0.0,0.0,11,0.00,,---,0.00,VWS V14.01,2013-11-03 01:28:00,
2013-11-02 18:29:00,72.7,15.2,29.62,SE,135,0.0,0.0,11,0.00,,---,0.00,VWS V14.01,2013-11-03 01:29:00,
2013-11-02 18:30:00,72.3,14.9,29.62,SE,135,0.0,0.0,11,0.00,,---,0.00,VWS V14.01,2013-11-03 01:30:00,
2013-11-02 18:31:00,72.3,14.9,29.62,SE,135,0.0,0.0,11,0.00,,---,0.00,VWS V14.01,2013-11-03 01:31:00,
2013-11-02 18:32:00,72.0,14.6,29.62,SE,135,0.0,0.0,11,0.00,,---,0.00,VWS V14.01,2013-11-03 01:32:00,
2013-11-02 18:33:00,72.0,14.6,29.62,SE,135,0.0,0.0,11,0.00,,---,0.00,VWS V14.01,2013-11-03 01:33:00,
2013-11-02 18:34:00,72.0,14.6,29.62,SSE,158,0.0,0.0,11,0.00,,---,0.00,VWS V14.01,2013-11-03 01:34:00,
2013-11-02 18:35:00,72.0,14.6,29.62,SSE,158,0.0,0.0,11,0.00,,---,0.00,VWS V14.01,2013-11-03 01:35:00,
2013-11-02 18:37:00,71.6,14.4,29.62,WSW,248,2.5,2.9,11,0.00,,---,0.00,VWS V14.01,2013-11-03 01:37:00,
2013-11-02 18:38:00,71.6,14.4,29.62,West,270,2.5,2.9,11,0.00,,---,0.00,VWS V14.01,2013-11-03 01:38:00,
2013-11-02 18:39:00,71.8,14.5,29.62,WNW,292,3.4,3.4,11,0.00,,---,0.00,VWS V14.01,2013-11-03 01:39:00,
2013-11-02 18:40:00,72.0,14.6,29.62,West,270,4.3,4.3,11,0.00,,---,0.00,VWS V14.01,2013-11-03 01:40:00,
2013-11-02 18:41:00,72.0,14.6,29.62,West,270,2.5,4.3,11,0.00,,---,0.00,VWS V14.01,2013-11-03 01:41:00,
2013-11-02 18:42:00,72.7,15.2,29.62,West,270,4.3,4.3,11,0.00,,---,0.00,VWS V14.01,2013-11-03 01:42:00,
2013-11-02 18:43:00,72.7,15.2,29.62,WNW,292,3.8,4.3,11,0.00,,---,0.00,VWS V14.01,2013-11-03 01:43:00,
2013-11-02 18:44:00,72.7,15.2,29.62,West,270,6.3,6.3,11,0.00,,---,0.00,VWS V14.01,2013-11-03 01:44:00,
2013-11-02 18:45:00,72.7,15.2,29.62,West,270,4.3,6.3,11,0.00,,---,0.00,VWS V14.01,2013-11-03 01:45:00,
2013-11-02 18:46:00,72.9,15.3,29.62,West,270,3.6,4.3,11,0.00,,---,0.00,VWS V14.01,2013-11-03 01:46:00,
2013-11-02 18:47:00,73.0,15.5,29.62,SW,225,3.1,4.0,11,0.00,,---,0.00,VWS V14.01,2013-11-03 01:47:00,
2013-11-02 18:48:00,73.0,15.5,29.62,West,270,2.7,4.0,11,0.00,,---,0.00,VWS V14.01,2013-11-03 01:48:00,
2013-11-02 18:49:00,73.0,15.5,29.62,West,270,4.7,4.7,11,0.00,,---,0.00,VWS V14.01,2013-11-03 01:49:00,
2013-11-02 18:50:00,73.0,15.5,29.62,NW,315,3.8,4.7,11,0.00,,---,0.00,VWS V14.01,2013-11-03 01:50:00,
2013-11-02 18:51:00,73.0,15.5,29.62,WNW,292,4.0,4.0,11,0.00,,---,0.00,VWS V14.01,2013-11-03 01:51:00,
2013-11-02 18:52:00,73.0,15.5,29.62,WNW,292,4.3,6.5,11,0.00,,---,0.00,VWS V14.01,2013-11-03 01:52:00,
2013-11-02 18:53:00,73.0,15.5,29.62,WNW,292,2.7,6.5,11,0.00,,---,0.00,VWS V14.01,2013-11-03 01:53:00,
2013-11-02 18:54:00,73.0,15.5,29.62,WNW,292,3.1,3.8,11,0.00,,---,0.00,VWS V14.01,2013-11-03 01:54:00,
2013-11-02 18:55:00,73.2,15.6,29.62,WNW,292,4.9,5.4,11,0.00,,---,0.00,VWS V14.01,2013-11-03 01:55:00,
2013-11-02 18:56:00,73.0,15.5,29.62,West,270,3.6,4.9,11,0.00,,---,0.00,VWS V14.01,2013-11-03 01:56:00,
2013-11-02 18:57:00,73.0,15.5,29.62,NNW,338,4.0,4.0,11,0.00,,---,0.00,VWS V14.01,2013-11-03 01:57:00,
2013-11-02 18:58:00,73.0,15.5,29.62,NNW,338,4.0,4.0,11,0.00,,---,0.00,VWS V14.01,2013-11-03 01:58:00,
2013-11-02 18:59:00,73.0,15.5,29.62,NW,315,3.4,4.0,11,0.00,,---,0.00,VWS V14.01,2013-11-03 01:59:00,
2013-11-02 19:00:00,72.9,15.3,29.62,NW,315,3.4,3.6,11,0.00,,---,0.00,VWS V14.01,2013-11-03 02:00:00,
2013-11-02 19:01:00,72.7,15.2,29.62,NW,315,2.0,4.7,11,0.00,,---,0.00,VWS V14.01,2013-11-03 02:01:00,
2013-11-02 19:02:00,72.5,15.0,29.62,NNW,338,2.7,4.0,11,0.00,,---,0.00,VWS V14.01,2013-11-03 02:02:00,
2013-11-02 19:03:00,72.3,14.9,29.62,NW,315,2.5,2.7,11,0.00,,---,0.00,VWS V14.01,2013-11-03 02:03:00,
2013-11-02 19:04:00,72.3,14.9,29.62,NNW,338,1.3,3.6,11,0.00,,---,0.00,VWS V14.01,2013-11-03 02:04:00,
2013-11-02 19:05:00,72.3,14.9,29.62,NW,315,1.3,1.3,11,0.00,,---,0.00,VWS V14.01,2013-11-03 02:05:00,
2013-11-02 19:06:00,72.3,14.9,29.62,West,270,3.1,3.1,11,0.00,,---,0.00,VWS V14.01,2013-11-03 02:06:00,
2013-11-02 19:07:00,71.8,14.5,29.62,WNW,292,0.0,3.1,11,0.00,,---,0.00,VWS V14.01,2013-11-03 02:07:00,
2013-11-02 19:08:00,71.6,14.4,29.62,NW,315,1.6,1.6,11,0.00,,---,0.00,VWS V14.01,2013-11-03 02:08:00,
2013-11-02 19:09:00,71.6,14.4,29.62,WNW,292,2.2,2.7,11,0.00,,---,0.00,VWS V14.01,2013-11-03 02:09:00,
2013-11-02 19:10:00,71.4,16.2,29.62,WNW,292,2.0,2.5,12,0.00,,---,0.00,VWS V14.01,2013-11-03 02:10:00,
2013-11-02 19:11:00,71.4,16.2,29.62,NW,315,2.5,2.7,12,0.00,,---,0.00,VWS V14.01,2013-11-03 02:11:00,
2013-11-02 19:12:00,71.2,16.1,29.62,NW,315,2.5,2.5,12,0.00,,---,0.00,VWS V14.01,2013-11-03 02:12:00,
2013-11-02 19:13:00,71.1,15.9,29.62,WNW,292,2.0,2.2,12,0.00,,---,0.00,VWS V14.01,2013-11-03 02:13:00,
2013-11-02 19:14:00,71.1,15.9,29.62,WNW,292,2.5,2.5,12,0.00,,---,0.00,VWS V14.01,2013-11-03 02:14:00,
2013-11-02 19:15:00,70.9,15.8,29.62,WNW,292,2.2,2.7,12,0.00,,---,0.00,VWS V14.01,2013-11-03 02:15:00,
2013-11-02 19:16:00,70.9,15.8,29.62,West,270,2.9,2.9,12,0.00,,---,0.00,VWS V14.01,2013-11-03 02:16:00,
2013-11-02 19:17:00,70.9,15.8,29.62,WNW,292,2.7,4.0,12,0.00,,---,0.00,VWS V14.01,2013-11-03 02:17:00,
2013-11-02 19:18:00,70.7,15.6,29.62,West,270,2.7,3.1,12,0.00,,---,0.00,VWS V14.01,2013-11-03 02:18:00,
2013-11-02 19:19:00,70.7,15.6,29.62,WSW,248,2.5,3.1,12,0.00,,---,0.00,VWS V14.01,2013-11-03 02:19:00,
2013-11-02 19:20:00,70.7,15.6,29.62,West,270,1.6,3.1,12,0.00,,---,0.00,VWS V14.01,2013-11-03 02:20:00,
2013-11-02 19:21:00,70.7,15.6,29.62,WSW,248,2.7,2.7,12,0.00,,---,0.00,VWS V14.01,2013-11-03 02:21:00,
2013-11-02 19:22:00,70.5,15.5,29.62,NNW,338,2.5,2.7,12,0.00,,---,0.00,VWS V14.01,2013-11-03 02:22:00,
2013-11-02 19:23:00,70.3,15.4,29.62,WNW,292,2.0,2.0,12,0.00,,---,0.00,VWS V14.01,2013-11-03 02:23:00,
2013-11-02 19:24:00,70.3,15.4,29.62,WNW,292,2.7,2.9,12,0.00,,---,0.00,VWS V14.01,2013-11-03 02:24:00,
2013-11-02 19:25:00,70.3,15.4,29.62,WNW,292,2.2,2.7,12,0.00,,---,0.00,VWS V14.01,2013-11-03 02:25:00,
2013-11-02 19:26:00,70.3,15.4,29.62,NW,315,2.2,3.4,12,0.00,,---,0.00,VWS V14.01,2013-11-03 02:26:00,
2013-11-02 19:27:00,70.3,15.4,29.62,West,270,2.7,3.8,12,0.00,,---,0.00,VWS V14.01,2013-11-03 02:27:00,
2013-11-02 19:28:00,70.5,15.5,29.62,WNW,292,2.5,2.9,12,0.00,,---,0.00,VWS V14.01,2013-11-03 02:28:00,
2013-11-02 19:30:00,70.5,15.5,29.62,WNW,292,2.9,2.9,12,0.00,,---,0.00,VWS V14.01,2013-11-03 02:30:00,
2013-11-02 19:31:00,70.5,15.5,29.62,NW,315,2.7,2.9,12,0.00,,---,0.00,VWS V14.01,2013-11-03 02:31:00,
2013-11-02 19:32:00,70.3,15.4,29.62,WNW,292,2.0,2.9,12,0.00,,---,0.00,VWS V14.01,2013-11-03 02:32:00,
2013-11-02 19:33:00,70.5,15.5,29.62,WNW,292,2.7,2.7,12,0.00,,---,0.00,VWS V14.01,2013-11-03 02:33:00,
2013-11-02 19:34:00,70.5,15.5,29.62,WNW,292,3.1,5.4,12,0.00,,---,0.00,VWS V14.01,2013-11-03 02:34:00,
2013-11-02 19:35:00,70.5,15.5,29.62,WNW,292,3.4,3.4,12,0.00,,---,0.00,VWS V14.01,2013-11-03 02:35:00,
2013-11-02 19:36:00,70.5,15.5,29.62,WNW,292,2.9,3.4,12,0.00,,---,0.00,VWS V14.01,2013-11-03 02:36:00,
2013-11-02 19:37:00,70.7,15.6,29.62,WNW,292,3.4,3.6,12,0.00,,---,0.00,VWS V14.01,2013-11-03 02:37:00,
2013-11-02 19:38:00,70.7,15.6,29.62,WNW,292,2.9,3.6,12,0.00,,---,0.00,VWS V14.01,2013-11-03 02:38:00,
2013-11-02 19:39:00,70.7,15.6,29.62,WNW,292,2.0,3.6,12,0.00,,---,0.00,VWS V14.01,2013-11-03 02:39:00,
2013-11-02 19:41:00,70.9,15.8,29.62,NW,315,4.3,4.3,12,0.00,,---,0.00,VWS V14.01,2013-11-03 02:41:00,
2013-11-02 19:42:00,71.1,15.9,29.62,WNW,292,4.3,6.5,12,0.00,,---,0.00,VWS V14.01,2013-11-03 02:42:00,
2013-11-02 19:43:00,71.1,15.9,29.62,NW,315,4.0,4.9,12,0.00,,---,0.00,VWS V14.01,2013-11-03 02:43:00,
2013-11-02 19:44:00,71.1,15.9,29.62,NW,315,4.0,4.9,12,0.00,,---,0.00,VWS V14.01,2013-11-03 02:44:00,
2013-11-02 19:45:00,71.1,15.9,29.62,WSW,248,5.8,5.8,12,0.00,,---,0.00,VWS V14.01,2013-11-03 02:45:00,
2013-11-02 19:46:00,71.2,16.1,29.62,WNW,292,5.4,6.0,12,0.00,,---,0.00,VWS V14.01,2013-11-03 02:46:00,
2013-11-02 19:47:00,71.2,16.1,29.65,WNW,292,3.1,5.6,12,0.00,,---,0.00,VWS V14.01,2013-11-03 02:47:00,
2013-11-02 19:48:00,71.1,15.9,29.65,WNW,292,3.6,5.4,12,0.00,,---,0.00,VWS V14.01,2013-11-03 02:48:00,
2013-11-02 19:49:00,71.1,15.9,29.65,WSW,248,4.9,5.4,12,0.00,,---,0.00,VWS V14.01,2013-11-03 02:49:00,
2013-11-02 19:50:00,71.2,16.1,29.65,West,270,6.7,6.7,12,0.00,,---,0.00,VWS V14.01,2013-11-03 02:50:00,
2013-11-02 19:51:00,71.1,15.9,29.65,WNW,292,4.9,6.7,12,0.00,,---,0.00,VWS V14.01,2013-11-03 02:51:00,
2013-11-02 19:52:00,71.1,15.9,29.65,West,270,3.6,4.9,12,0.00,,---,0.00,VWS V14.01,2013-11-03 02:52:00,
2013-11-02 19:53:00,71.1,15.9,29.65,NW,315,4.7,4.7,12,0.00,,---,0.00,VWS V14.01,2013-11-03 02:53:00,
2013-11-02 19:54:00,71.1,15.9,29.65,WNW,292,2.7,4.7,12,0.00,,---,0.00,VWS V14.01,2013-11-03 02:54:00,
2013-11-02 19:55:00,71.1,15.9,29.65,WNW,292,4.0,5.4,12,0.00,,---,0.00,VWS V14.01,2013-11-03 02:55:00,
2013-11-02 19:56:00,71.1,15.9,29.65,West,270,4.3,5.6,12,0.00,,---,0.00,VWS V14.01,2013-11-03 02:56:00,
2013-11-02 19:57:00,71.1,15.9,29.65,WNW,292,5.6,5.6,12,0.00,,---,0.00,VWS V14.01,2013-11-03 02:57:00,
2013-11-02 19:58:00,71.1,15.9,29.65,WNW,292,3.8,6.0,12,0.00,,---,0.00,VWS V14.01,2013-11-03 02:58:00,
2013-11-02 19:59:00,71.1,15.9,29.65,WNW,292,3.4,6.0,12,0.00,,---,0.00,VWS V14.01,2013-11-03 02:59:00,
2013-11-02 20:00:00,71.1,15.9,29.65,SSE,158,4.9,4.9,12,0.00,,---,0.00,VWS V14.01,2013-11-03 03:00:00,
2013-11-02 20:01:00,70.9,15.8,29.65,West,270,4.7,6.3,12,0.00,,---,0.00,VWS V14.01,2013-11-03 03:01:00,
2013-11-02 20:02:00,70.9,15.8,29.65,West,270,7.4,7.6,12,0.00,,---,0.00,VWS V14.01,2013-11-03 03:02:00,
2013-11-02 20:03:00,70.9,15.8,29.65,WNW,292,4.0,4.9,12,0.00,,---,0.00,VWS V14.01,2013-11-03 03:03:00,
2013-11-02 20:04:00,70.9,15.8,29.65,WNW,292,3.4,4.9,12,0.00,,---,0.00,VWS V14.01,2013-11-03 03:04:00,
2013-11-02 20:05:00,70.9,15.8,29.65,WNW,292,6.7,6.7,12,0.00,,---,0.00,VWS V14.01,2013-11-03 03:05:00,
2013-11-02 20:06:00,70.7,15.6,29.65,NW,315,3.4,7.8,12,0.00,,---,0.00,VWS V14.01,2013-11-03 03:06:00,
2013-11-02 20:07:00,70.7,15.6,29.65,WSW,248,3.8,7.4,12,0.00,,---,0.00,VWS V14.01,2013-11-03 03:07:00,
2013-11-02 20:08:00,70.7,15.6,29.65,NNW,338,3.4,4.3,12,0.00,,---,0.00,VWS V14.01,2013-11-03 03:08:00,
2013-11-02 20:09:00,70.7,15.6,29.65,WNW,292,4.3,4.3,12,0.00,,---,0.00,VWS V14.01,2013-11-03 03:09:00,
2013-11-02 20:10:00,70.7,15.6,29.65,NNW,338,7.4,7.4,12,0.00,,---,0.00,VWS V14.01,2013-11-03 03:10:00,
2013-11-02 20:11:00,70.7,15.6,29.65,WNW,292,4.7,7.4,12,0.00,,---,0.00,VWS V14.01,2013-11-03 03:11:00,
2013-11-02 20:12:00,70.7,15.6,29.65,WNW,292,4.0,5.6,12,0.00,,---,0.00,VWS V14.01,2013-11-03 03:12:00,
2013-11-02 20:13:00,70.7,15.6,29.65,WNW,292,5.6,7.2,12,0.00,,---,0.00,VWS V14.01,2013-11-03 03:13:00,
2013-11-02 20:14:00,70.7,15.6,29.65,NW,315,5.4,7.2,12,0.00,,---,0.00,VWS V14.01,2013-11-03 03:14:00,
2013-11-02 20:15:00,70.7,15.6,29.65,WNW,292,5.8,7.2,12,0.00,,---,0.00,VWS V14.01,2013-11-03 03:15:00,
2013-11-02 20:16:00,70.9,15.8,29.65,West,270,4.9,8.5,12,0.00,,---,0.00,VWS V14.01,2013-11-03 03:16:00,
2013-11-02 20:17:00,70.9,15.8,29.65,NW,315,7.8,7.8,12,0.00,,---,0.00,VWS V14.01,2013-11-03 03:17:00,
2013-11-02 20:18:00,70.9,15.8,29.65,NW,315,8.5,8.5,12,0.00,,---,0.00,VWS V14.01,2013-11-03 03:18:00,
2013-11-02 20:19:00,70.9,15.8,29.65,WNW,292,4.9,8.5,12,0.00,,---,0.00,VWS V14.01,2013-11-03 03:19:00,
2013-11-02 20:20:00,70.9,15.8,29.65,West,270,4.9,6.0,12,0.00,,---,0.00,VWS V14.01,2013-11-03 03:20:00,
2013-11-02 20:21:00,70.9,15.8,29.65,NW,315,3.8,5.6,12,0.00,,---,0.00,VWS V14.01,2013-11-03 03:21:00,
2013-11-02 20:22:00,70.9,15.8,29.65,NW,315,3.8,3.8,12,0.00,,---,0.00,VWS V14.01,2013-11-03 03:22:00,
2013-11-02 20:23:00,70.9,15.8,29.65,NW,315,4.3,4.3,12,0.00,,---,0.00,VWS V14.01,2013-11-03 03:23:00,
2013-11-02 20:24:00,70.9,15.8,29.65,West,270,5.4,5.4,12,0.00,,---,0.00,VWS V14.01,2013-11-03 03:24:00,
2013-11-02 20:25:00,70.9,15.8,29.65,WNW,292,5.4,6.0,12,0.00,,---,0.00,VWS V14.01,2013-11-03 03:25:00,
2013-11-02 20:26:00,70.9,15.8,29.65,WSW,248,5.8,6.5,12,0.00,,---,0.00,VWS V14.01,2013-11-03 03:26:00,
2013-11-02 20:27:00,70.7,15.6,29.65,West,270,5.4,5.8,12,0.00,,---,0.00,VWS V14.01,2013-11-03 03:27:00,
2013-11-02 20:28:00,70.7,15.6,29.65,West,270,4.3,5.8,12,0.00,,---,0.00,VWS V14.01,2013-11-03 03:28:00,
2013-11-02 20:29:00,70.7,15.6,29.65,SW,225,3.6,3.6,12,0.00,,---,0.00,VWS V14.01,2013-11-03 03:29:00,
2013-11-02 20:30:00,70.5,15.5,29.65,WSW,248,4.0,4.3,12,0.00,,---,0.00,VWS V14.01,2013-11-03 03:30:00,
2013-11-02 20:31:00,70.5,15.5,29.65,West,270,2.7,4.0,12,0.00,,---,0.00,VWS V14.01,2013-11-03 03:31:00,
2013-11-02 20:32:00,70.5,15.5,29.65,West,270,4.0,5.8,12,0.00,,---,0.00,VWS V14.01,2013-11-03 03:32:00,
2013-11-02 20:33:00,70.3,15.4,29.65,WNW,292,4.9,4.9,12,0.00,,---,0.00,VWS V14.01,2013-11-03 03:33:00,
2013-11-02 20:34:00,70.3,15.4,29.65,West,270,2.9,2.9,12,0.00,,---,0.00,VWS V14.01,2013-11-03 03:34:00,
2013-11-02 20:35:00,70.3,15.4,29.65,WSW,248,4.9,4.9,12,0.00,,---,0.00,VWS V14.01,2013-11-03 03:35:00,
2013-11-02 20:36:00,70.2,15.2,29.65,West,270,4.3,4.9,12,0.00,,---,0.00,VWS V14.01,2013-11-03 03:36:00,
2013-11-02 20:37:00,70.2,15.2,29.65,West,270,3.8,4.3,12,0.00,,---,0.00,VWS V14.01,2013-11-03 03:37:00,
2013-11-02 20:38:00,70.2,15.2,29.65,NNW,338,3.4,3.8,12,0.00,,---,0.00,VWS V14.01,2013-11-03 03:38:00,
2013-11-02 20:39:00,70.0,15.1,29.65,WNW,292,3.1,3.4,12,0.00,,---,0.00,VWS V14.01,2013-11-03 03:39:00,
2013-11-02 20:40:00,70.0,15.1,29.65,West,270,4.9,4.9,12,0.00,,---,0.00,VWS V14.01,2013-11-03 03:40:00,
2013-11-02 20:41:00,70.0,15.1,29.65,WNW,292,4.0,4.9,12,0.00,,---,0.00,VWS V14.01,2013-11-03 03:41:00,
2013-11-02 20:42:00,70.0,15.1,29.65,WNW,292,3.4,4.0,12,0.00,,---,0.00,VWS V14.01,2013-11-03 03:42:00,
2013-11-02 20:43:00,70.0,15.1,29.65,WNW,292,4.0,4.0,12,0.00,,---,0.00,VWS V14.01,2013-11-03 03:43:00,
2013-11-02 20:44:00,69.8,14.9,29.65,West,270,4.7,4.7,12,0.00,,---,0.00,VWS V14.01,2013-11-03 03:44:00,
2013-11-02 20:46:00,69.8,14.9,29.65,West,270,3.4,4.7,12,0.00,,---,0.00,VWS V14.01,2013-11-03 03:46:00,
2013-11-02 20:47:00,69.8,14.9,29.68,WNW,292,2.7,3.6,12,0.00,,---,0.00,VWS V14.01,2013-11-03 03:47:00,
2013-11-02 20:48:00,69.6,14.8,29.68,SW,225,3.4,3.4,12,0.00,,---,0.00,VWS V14.01,2013-11-03 03:48:00,
2013-11-02 20:49:00,69.6,14.8,29.68,West,270,2.5,3.1,12,0.00,,---,0.00,VWS V14.01,2013-11-03 03:49:00,
2013-11-02 20:50:00,69.6,14.8,29.68,SW,225,2.7,3.8,12,0.00,,---,0.00,VWS V14.01,2013-11-03 03:50:00,
2013-11-02 20:51:00,69.6,14.8,29.68,West,270,2.5,2.7,12,0.00,,---,0.00,VWS V14.01,2013-11-03 03:51:00,
2013-11-02 20:52:00,69.4,14.6,29.68,WSW,248,3.6,3.6,12,0.00,,---,0.00,VWS V14.01,2013-11-03 03:52:00,
2013-11-02 20:53:00,69.4,14.6,29.68,West,270,2.9,3.6,12,0.00,,---,0.00,VWS V14.01,2013-11-03 03:53:00,
2013-11-02 20:54:00,69.4,14.6,29.68,WNW,292,2.5,3.1,12,0.00,,---,0.00,VWS V14.01,2013-11-03 03:54:00,
2013-11-02 20:55:00,69.3,14.5,29.68,WNW,292,3.1,3.1,12,0.00,,---,0.00,VWS V14.01,2013-11-03 03:55:00,
2013-11-02 20:56:00,69.3,14.5,29.68,WNW,292,2.5,3.1,12,0.00,,---,0.00,VWS V14.01,2013-11-03 03:56:00,
2013-11-02 20:57:00,69.3,14.5,29.68,NW,315,2.2,2.9,12,0.00,,---,0.00,VWS V14.01,2013-11-03 03:57:00,
2013-11-02 20:58:00,69.1,14.4,29.68,NW,315,2.5,3.4,12,0.00,,---,0.00,VWS V14.01,2013-11-03 03:58:00,
2013-11-02 20:59:00,69.1,14.4,29.68,NW,315,2.2,2.9,12,0.00,,---,0.00,VWS V14.01,2013-11-03 03:59:00,
2013-11-02 21:00:00,69.1,14.4,29.68,WNW,292,1.3,2.9,12,0.00,,---,0.00,VWS V14.01,2013-11-03 04:00:00,
2013-11-02 21:01:00,69.1,14.4,29.68,WNW,292,1.6,3.1,12,0.00,,---,0.00,VWS V14.01,2013-11-03 04:01:00,
2013-11-02 21:02:00,69.1,14.4,29.65,NW,315,3.4,3.4,12,0.00,,---,0.00,VWS V14.01,2013-11-03 04:02:00,
2013-11-02 21:03:00,69.1,14.4,29.65,WNW,292,2.0,3.4,12,0.00,,---,0.00,VWS V14.01,2013-11-03 04:03:00,
2013-11-02 21:04:00,69.1,14.4,29.65,WSW,248,1.6,2.5,12,0.00,,---,0.00,VWS V14.01,2013-11-03 04:04:00,
2013-11-02 21:05:00,69.1,14.4,29.65,WNW,292,2.7,2.7,12,0.00,,---,0.00,VWS V14.01,2013-11-03 04:05:00,
2013-11-02 21:06:00,69.1,14.4,29.65,WNW,292,2.7,2.7,12,0.00,,---,0.00,VWS V14.01,2013-11-03 04:06:00,
2013-11-02 21:07:00,68.9,14.2,29.65,NW,315,2.2,2.7,12,0.00,,---,0.00,VWS V14.01,2013-11-03 04:07:00,
2013-11-02 21:08:00,68.9,14.2,29.65,WNW,292,1.6,2.2,12,0.00,,---,0.00,VWS V14.01,2013-11-03 04:08:00,
2013-11-02 21:09:00,68.9,14.2,29.65,WNW,292,1.3,2.2,12,0.00,,---,0.00,VWS V14.01,2013-11-03 04:09:00,
2013-11-02 21:10:00,68.7,14.1,29.65,WSW,248,0.0,0.9,12,0.00,,---,0.00,VWS V14.01,2013-11-03 04:10:00,
2013-11-02 21:11:00,68.7,14.1,29.65,SSW,202,0.0,0.9,12,0.00,,---,0.00,VWS V14.01,2013-11-03 04:11:00,
2013-11-02 21:12:00,68.7,14.1,29.65,SW,225,0.0,0.9,12,0.00,,---,0.00,VWS V14.01,2013-11-03 04:12:00,
2013-11-02 21:13:00,68.5,13.9,29.65,SW,225,0.0,0.9,12,0.00,,---,0.00,VWS V14.01,2013-11-03 04:13:00,
2013-11-02 21:14:00,68.5,13.9,29.65,SW,225,0.0,0.9,12,0.00,,---,0.00,VWS V14.01,2013-11-03 04:14:00,
2013-11-02 21:15:00,68.5,13.9,29.65,South,180,0.0,0.0,12,0.00,,---,0.00,VWS V14.01,2013-11-03 04:15:00,
2013-11-02 21:16:00,68.5,13.9,29.65,South,180,0.0,0.0,12,0.00,,---,0.00,VWS V14.01,2013-11-03 04:16:00,
2013-11-02 21:17:00,68.4,13.8,29.68,South,180,0.0,0.0,12,0.00,,---,0.00,VWS V14.01,2013-11-03 04:17:00,
2013-11-02 21:18:00,68.4,13.8,29.68,SSE,158,0.9,1.1,12,0.00,,---,0.00,VWS V14.01,2013-11-03 04:18:00,
2013-11-02 21:19:00,68.4,13.8,29.68,SSE,158,1.6,1.6,12,0.00,,---,0.00,VWS V14.01,2013-11-03 04:19:00,
2013-11-02 21:20:00,68.4,13.8,29.68,SSE,158,1.6,2.0,12,0.00,,---,0.00,VWS V14.01,2013-11-03 04:20:00,
2013-11-02 21:21:00,68.4,13.8,29.68,SSE,158,2.5,2.5,12,0.00,,---,0.00,VWS V14.01,2013-11-03 04:21:00,
2013-11-02 21:22:00,68.4,13.8,29.68,SSE,158,1.6,2.5,12,0.00,,---,0.00,VWS V14.01,2013-11-03 04:22:00,
2013-11-02 21:23:00,68.4,13.8,29.68,SSE,158,1.3,1.6,12,0.00,,---,0.00,VWS V14.01,2013-11-03 04:23:00,
2013-11-02 21:24:00,68.4,13.8,29.68,SE,135,0.0,1.3,12,0.00,,---,0.00,VWS V14.01,2013-11-03 04:24:00,
2013-11-02 21:25:00,68.4,13.8,29.68,SSE,158,1.6,2.0,12,0.00,,---,0.00,VWS V14.01,2013-11-03 04:25:00,
2013-11-02 21:26:00,68.2,13.7,29.68,SSE,158,2.0,2.0,12,0.00,,---,0.00,VWS V14.01,2013-11-03 04:26:00,
2013-11-02 21:27:00,68.2,13.7,29.68,SSE,158,2.9,2.9,12,0.00,,---,0.00,VWS V14.01,2013-11-03 04:27:00,
2013-11-02 21:28:00,68.4,13.8,29.68,SE,135,2.9,3.4,12,0.00,,---,0.00,VWS V14.01,2013-11-03 04:28:00,
2013-11-02 21:29:00,68.2,13.7,29.68,SSE,158,2.7,3.1,12,0.00,,---,0.00,VWS V14.01,2013-11-03 04:29:00,
2013-11-02 21:30:00,68.2,13.7,29.68,SE,135,2.9,2.9,12,0.00,,---,0.00,VWS V14.01,2013-11-03 04:30:00,
2013-11-02 21:31:00,68.2,13.7,29.68,SE,135,2.2,2.2,12,0.00,,---,0.00,VWS V14.01,2013-11-03 04:31:00,
2013-11-02 21:32:00,68.2,13.7,29.68,SE,135,1.3,2.2,12,0.00,,---,0.00,VWS V14.01,2013-11-03 04:32:00,
2013-11-02 21:33:00,68.2,13.7,29.68,SE,135,0.0,1.3,12,0.00,,---,0.00,VWS V14.01,2013-11-03 04:33:00,
2013-11-02 21:34:00,68.2,13.7,29.68,SE,135,0.0,0.0,12,0.00,,---,0.00,VWS V14.01,2013-11-03 04:34:00,
2013-11-02 21:35:00,68.0,13.5,29.68,SE,135,0.0,0.0,12,0.00,,---,0.00,VWS V14.01,2013-11-03 04:35:00,
2013-11-02 21:36:00,68.0,13.5,29.68,SSW,202,0.0,0.0,12,0.00,,---,0.00,VWS V14.01,2013-11-03 04:36:00,
2013-11-02 21:37:00,68.0,13.5,29.68,SSW,202,0.0,0.0,12,0.00,,---,0.00,VWS V14.01,2013-11-03 04:37:00,
2013-11-02 21:38:00,68.0,13.5,29.68,SSW,202,0.0,1.1,12,0.00,,---,0.00,VWS V14.01,2013-11-03 04:38:00,
2013-11-02 21:39:00,67.8,13.4,29.68,SSW,202,0.0,0.0,12,0.00,,---,0.00,VWS V14.01,2013-11-03 04:39:00,
2013-11-02 21:40:00,67.8,13.4,29.68,SSW,202,0.0,0.0,12,0.00,,---,0.00,VWS V14.01,2013-11-03 04:40:00,
2013-11-02 21:41:00,67.8,13.4,29.68,SSW,202,0.0,0.0,12,0.00,,---,0.00,VWS V14.01,2013-11-03 04:41:00,
2013-11-02 21:42:00,67.6,13.2,29.68,SSW,202,0.0,0.0,12,0.00,,---,0.00,VWS V14.01,2013-11-03 04:42:00,
2013-11-02 21:43:00,67.6,13.2,29.68,SSW,202,0.0,0.0,12,0.00,,---,0.00,VWS V14.01,2013-11-03 04:43:00,
2013-11-02 21:44:00,67.6,13.2,29.68,South,180,1.1,1.1,12,0.00,,---,0.00,VWS V14.01,2013-11-03 04:44:00,
2013-11-02 21:45:00,67.6,13.2,29.68,South,180,0.0,1.1,12,0.00,,---,0.00,VWS V14.01,2013-11-03 04:45:00,
2013-11-02 21:46:00,67.6,13.2,29.68,South,180,0.0,0.0,12,0.00,,---,0.00,VWS V14.01,2013-11-03 04:46:00,
2013-11-02 21:47:00,67.6,13.2,29.68,South,180,0.0,0.0,12,0.00,,---,0.00,VWS V14.01,2013-11-03 04:47:00,
2013-11-02 21:48:00,67.6,13.2,29.68,South,180,0.0,0.0,12,0.00,,---,0.00,VWS V14.01,2013-11-03 04:48:00,
2013-11-02 21:49:00,67.5,13.1,29.68,South,180,0.0,0.0,12,0.00,,---,0.00,VWS V14.01,2013-11-03 04:49:00,
2013-11-02 21:50:00,67.5,13.1,29.68,South,180,0.0,0.0,12,0.00,,---,0.00,VWS V14.01,2013-11-03 04:50:00,
2013-11-02 21:51:00,67.5,13.1,29.68,South,180,0.0,0.0,12,0.00,,---,0.00,VWS V14.01,2013-11-03 04:51:00,
2013-11-02 21:52:00,67.5,13.1,29.68,South,180,0.0,0.0,12,0.00,,---,0.00,VWS V14.01,2013-11-03 04:52:00,
2013-11-02 21:53:00,67.5,13.1,29.68,South,180,0.0,0.0,12,0.00,,---,0.00,VWS V14.01,2013-11-03 04:53:00,
2013-11-02 21:54:00,67.5,13.1,29.68,South,180,0.0,0.0,12,0.00,,---,0.00,VWS V14.01,2013-11-03 04:54:00,
2013-11-02 21:55:00,67.5,13.1,29.68,South,180,0.0,0.0,12,0.00,,---,0.00,VWS V14.01,2013-11-03 04:55:00,
2013-11-02 21:56:00,67.5,13.1,29.68,South,180,0.0,0.0,12,0.00,,---,0.00,VWS V14.01,2013-11-03 04:56:00,
2013-11-02 21:57:00,67.5,13.1,29.68,South,180,0.0,0.0,12,0.00,,---,0.00,VWS V14.01,2013-11-03 04:57:00,
2013-11-02 21:58:00,67.5,13.1,29.68,South,180,1.1,1.6,12,0.00,,---,0.00,VWS V14.01,2013-11-03 04:58:00,
2013-11-02 21:59:00,67.5,13.1,29.68,SSE,158,1.1,1.1,12,0.00,,---,0.00,VWS V14.01,2013-11-03 04:59:00,
2013-11-02 22:00:00,67.5,13.1,29.68,ESE,112,2.0,2.0,12,0.00,,---,0.00,VWS V14.01,2013-11-03 05:00:00,
2013-11-02 22:01:00,67.5,13.1,29.65,SSE,158,3.1,3.1,12,0.00,,---,0.00,VWS V14.01,2013-11-03 05:01:00,
2013-11-02 22:02:00,67.5,13.1,29.65,South,180,2.7,3.1,12,0.00,,---,0.00,VWS V14.01,2013-11-03 05:02:00,
2013-11-02 22:03:00,67.5,13.1,29.65,ESE,112,2.9,3.6,12,0.00,,---,0.00,VWS V14.01,2013-11-03 05:03:00,
2013-11-02 22:04:00,67.5,13.1,29.65,SSE,158,2.0,2.9,12,0.00,,---,0.00,VWS V14.01,2013-11-03 05:04:00,
2013-11-02 22:05:00,67.5,13.1,29.65,SSE,158,2.5,2.7,12,0.00,,---,0.00,VWS V14.01,2013-11-03 05:05:00,
2013-11-02 22:06:00,67.5,13.1,29.65,SSE,158,3.6,3.6,12,0.00,,---,0.00,VWS V14.01,2013-11-03 05:06:00,
2013-11-02 22:07:00,67.5,13.1,29.65,SSE,158,3.6,3.6,12,0.00,,---,0.00,VWS V14.01,2013-11-03 05:07:00,
2013-11-02 22:08:00,67.5,13.1,29.65,SSE,158,2.7,3.6,12,0.00,,---,0.00,VWS V14.01,2013-11-03 05:08:00,
2013-11-02 22:09:00,67.5,13.1,29.65,SE,135,3.4,3.4,12,0.00,,---,0.00,VWS V14.01,2013-11-03 05:09:00,
2013-11-02 22:10:00,67.5,13.1,29.65,SE,135,2.9,3.8,12,0.00,,---,0.00,VWS V14.01,2013-11-03 05:10:00,
2013-11-02 22:11:00,67.5,13.1,29.65,SE,135,3.4,3.6,12,0.00,,---,0.00,VWS V14.01,2013-11-03 05:11:00,
2013-11-02 22:12:00,67.5,13.1,29.65,SE,135,3.6,3.6,12,0.00,,---,0.00,VWS V14.01,2013-11-03 05:12:00,
2013-11-02 22:13:00,67.5,13.1,29.65,SSE,158,2.5,3.6,12,0.00,,---,0.00,VWS V14.01,2013-11-03 05:13:00,
2013-11-02 22:14:00,67.5,13.1,29.65,SE,135,2.9,3.6,12,0.00,,---,0.00,VWS V14.01,2013-11-03 05:14:00,
2013-11-02 22:15:00,67.5,13.1,29.65,SSE,158,4.0,4.3,12,0.00,,---,0.00,VWS V14.01,2013-11-03 05:15:00,
2013-11-02 22:16:00,67.6,13.2,29.68,ESE,112,5.4,5.4,12,0.00,,---,0.00,VWS V14.01,2013-11-03 05:16:00,
2013-11-02 22:17:00,67.6,13.2,29.68,SE,135,2.9,5.4,12,0.00,,---,0.00,VWS V14.01,2013-11-03 05:17:00,
2013-11-02 22:18:00,67.6,13.2,29.68,ESE,112,2.5,3.8,12,0.00,,---,0.00,VWS V14.01,2013-11-03 05:18:00,
2013-11-02 22:19:00,67.6,13.2,29.68,SSE,158,2.7,4.0,12,0.00,,---,0.00,VWS V14.01,2013-11-03 05:19:00,
2013-11-02 22:20:00,67.6,13.2,29.68,SSE,158,1.6,2.9,12,0.00,,---,0.00,VWS V14.01,2013-11-03 05:20:00,
2013-11-02 22:21:00,67.6,13.2,29.68,SSE,158,2.5,2.5,12,0.00,,---,0.00,VWS V14.01,2013-11-03 05:21:00,
2013-11-02 22:22:00,67.6,13.2,29.68,ESE,112,1.3,2.5,12,0.00,,---,0.00,VWS V14.01,2013-11-03 05:22:00,
2013-11-02 22:23:00,67.6,13.2,29.68,East,90,1.3,3.6,12,0.00,,---,0.00,VWS V14.01,2013-11-03 05:23:00,
2013-11-02 22:24:00,67.6,13.2,29.68,SE,135,3.6,3.6,12,0.00,,---,0.00,VWS V14.01,2013-11-03 05:24:00,
2013-11-02 22:25:00,67.6,13.2,29.68,SE,135,3.6,4.0,12,0.00,,---,0.00,VWS V14.01,2013-11-03 05:25:00,
2013-11-02 22:26:00,67.6,13.2,29.68,SSE,158,3.8,3.8,12,0.00,,---,0.00,VWS V14.01,2013-11-03 05:26:00,
2013-11-02 22:27:00,67.6,13.2,29.68,South,180,3.8,4.0,12,0.00,,---,0.00,VWS V14.01,2013-11-03 05:27:00,
2013-11-02 22:28:00,67.6,13.2,29.68,SE,135,3.8,3.8,12,0.00,,---,0.00,VWS V14.01,2013-11-03 05:28:00,
2013-11-02 22:29:00,67.6,13.2,29.68,SE,135,2.9,3.8,12,0.00,,---,0.00,VWS V14.01,2013-11-03 05:29:00,
2013-11-02 22:30:00,67.6,13.2,29.68,SE,135,2.7,2.9,12,0.00,,---,0.00,VWS V14.01,2013-11-03 05:30:00,
2013-11-02 22:31:00,67.8,13.4,29.68,SSE,158,4.0,4.0,12,0.00,,---,0.00,VWS V14.01,2013-11-03 05:31:00,
2013-11-02 22:32:00,67.8,13.4,29.68,SE,135,2.7,4.3,12,0.00,,---,0.00,VWS V14.01,2013-11-03 05:32:00,
2013-11-02 22:33:00,67.8,13.4,29.68,SSE,158,3.8,4.0,12,0.00,,---,0.00,VWS V14.01,2013-11-03 05:33:00,
2013-11-02 22:34:00,68.0,13.5,29.68,SE,135,2.7,3.8,12,0.00,,---,0.00,VWS V14.01,2013-11-03 05:34:00,
2013-11-02 22:35:00,68.0,13.5,29.68,SSE,158,2.7,2.7,12,0.00,,---,0.00,VWS V14.01,2013-11-03 05:35:00,
2013-11-02 22:36:00,67.8,13.4,29.68,SSE,158,1.6,2.7,12,0.00,,---,0.00,VWS V14.01,2013-11-03 05:36:00,
2013-11-02 22:37:00,67.8,13.4,29.68,SE,135,3.6,3.6,12,0.00,,---,0.00,VWS V14.01,2013-11-03 05:37:00,
2013-11-02 22:38:00,67.8,13.4,29.68,SE,135,3.6,3.6,12,0.00,,---,0.00,VWS V14.01,2013-11-03 05:38:00,
2013-11-02 22:39:00,68.0,13.5,29.68,SE,135,2.7,3.6,12,0.00,,---,0.00,VWS V14.01,2013-11-03 05:39:00,
2013-11-02 22:40:00,68.0,13.5,29.68,SE,135,1.3,2.7,12,0.00,,---,0.00,VWS V14.01,2013-11-03 05:40:00,
2013-11-02 22:41:00,68.0,13.5,29.68,South,180,3.6,3.6,12,0.00,,---,0.00,VWS V14.01,2013-11-03 05:41:00,
2013-11-02 22:42:00,68.0,13.5,29.68,SSE,158,4.3,4.3,12,0.00,,---,0.00,VWS V14.01,2013-11-03 05:42:00,
2013-11-02 22:43:00,68.0,13.5,29.68,SSE,158,4.3,4.3,12,0.00,,---,0.00,VWS V14.01,2013-11-03 05:43:00,
2013-11-02 22:44:00,68.2,13.7,29.68,SSE,158,4.9,5.8,12,0.00,,---,0.00,VWS V14.01,2013-11-03 05:44:00,
2013-11-02 22:45:00,68.2,13.7,29.68,ESE,112,4.0,7.6,12,0.00,,---,0.00,VWS V14.01,2013-11-03 05:45:00,
2013-11-02 22:46:00,68.2,13.7,29.68,SE,135,6.7,7.8,12,0.00,,---,0.00,VWS V14.01,2013-11-03 05:46:00,
2013-11-02 22:47:00,68.2,13.7,29.68,SW,225,2.7,3.8,12,0.00,,---,0.00,VWS V14.01,2013-11-03 05:47:00,
2013-11-02 22:48:00,68.2,13.7,29.68,SSE,158,7.2,7.2,12,0.00,,---,0.00,VWS V14.01,2013-11-03 05:48:00,
2013-11-02 22:49:00,68.0,13.5,29.68,SSW,202,4.3,7.2,12,0.00,,---,0.00,VWS V14.01,2013-11-03 05:49:00,
2013-11-02 22:50:00,68.0,13.5,29.68,SE,135,3.8,4.9,12,0.00,,---,0.00,VWS V14.01,2013-11-03 05:50:00,
2013-11-02 22:51:00,68.0,13.5,29.68,East,90,3.1,7.8,12,0.00,,---,0.00,VWS V14.01,2013-11-03 05:51:00,
2013-11-02 22:52:00,67.8,13.4,29.68,SE,135,3.8,3.8,12,0.00,,---,0.00,VWS V14.01,2013-11-03 05:52:00,
2013-11-02 22:53:00,67.8,13.4,29.68,SSE,158,5.8,5.8,12,0.00,,---,0.00,VWS V14.01,2013-11-03 05:53:00,
2013-11-02 22:54:00,67.8,13.4,29.68,ESE,112,6.3,8.7,12,0.00,,---,0.00,VWS V14.01,2013-11-03 05:54:00,
2013-11-02 22:55:00,67.8,13.4,29.68,SSE,158,8.5,8.5,12,0.00,,---,0.00,VWS V14.01,2013-11-03 05:55:00,
2013-11-02 22:56:00,67.8,13.4,29.68,SE,135,8.5,8.5,12,0.00,,---,0.00,VWS V14.01,2013-11-03 05:56:00,
2013-11-02 22:57:00,67.8,13.4,29.68,SSE,158,6.5,8.5,12,0.00,,---,0.00,VWS V14.01,2013-11-03 05:57:00,
2013-11-02 22:58:00,68.0,13.5,29.68,SE,135,7.6,7.6,12,0.00,,---,0.00,VWS V14.01,2013-11-03 05:58:00,
2013-11-02 22:59:00,67.8,13.4,29.68,East,90,4.0,7.6,12,0.00,,---,0.00,VWS V14.01,2013-11-03 05:59:00,
2013-11-02 23:00:00,67.8,13.4,29.68,East,90,6.0,6.0,12,0.00,,---,0.00,VWS V14.01,2013-11-03 06:00:00,
2013-11-02 23:01:00,67.8,13.4,29.68,SSE,158,3.1,6.0,12,0.00,,---,0.00,VWS V14.01,2013-11-03 06:01:00,
2013-11-02 23:02:00,67.8,13.4,29.68,SE,135,7.4,7.4,12,0.00,,---,0.00,VWS V14.01,2013-11-03 06:02:00,
2013-11-02 23:03:00,67.8,13.4,29.68,SE,135,7.4,7.4,12,0.00,,---,0.00,VWS V14.01,2013-11-03 06:03:00,
2013-11-02 23:04:00,67.8,13.4,29.68,SE,135,6.7,7.6,12,0.00,,---,0.00,VWS V14.01,2013-11-03 06:04:00,
2013-11-02 23:05:00,67.8,13.4,29.68,ESE,112,4.3,6.7,12,0.00,,---,0.00,VWS V14.01,2013-11-03 06:05:00,
2013-11-02 23:06:00,67.8,13.4,29.68,SSE,158,6.3,6.3,12,0.00,,---,0.00,VWS V14.01,2013-11-03 06:06:00,
2013-11-02 23:07:00,67.8,13.4,29.68,SSE,158,5.8,5.8,12,0.00,,---,0.00,VWS V14.01,2013-11-03 06:07:00,
2013-11-02 23:08:00,67.8,13.4,29.68,SE,135,6.3,6.5,12,0.00,,---,0.00,VWS V14.01,2013-11-03 06:08:00,
2013-11-02 23:09:00,67.8,13.4,29.68,SE,135,6.5,6.5,12,0.00,,---,0.00,VWS V14.01,2013-11-03 06:09:00,
2013-11-02 23:10:00,67.8,13.4,29.68,SSE,158,5.4,6.5,12,0.00,,---,0.00,VWS V14.01,2013-11-03 06:10:00,
2013-11-02 23:11:00,67.8,13.4,29.68,SSE,158,4.9,5.4,12,0.00,,---,0.00,VWS V14.01,2013-11-03 06:11:00,
2013-11-02 23:12:00,67.8,13.4,29.68,SE,135,6.0,6.3,12,0.00,,---,0.00,VWS V14.01,2013-11-03 06:12:00,
2013-11-02 23:13:00,67.8,13.4,29.68,ESE,112,3.6,6.3,12,0.00,,---,0.00,VWS V14.01,2013-11-03 06:13:00,
2013-11-02 23:14:00,67.8,13.4,29.68,SE,135,8.7,8.7,12,0.00,,---,0.00,VWS V14.01,2013-11-03 06:14:00,
2013-11-02 23:15:00,68.0,13.5,29.68,SE,135,4.7,8.7,12,0.00,,---,0.00,VWS V14.01,2013-11-03 06:15:00,
2013-11-02 23:16:00,68.0,13.5,29.68,ESE,112,4.0,4.9,12,0.00,,---,0.00,VWS V14.01,2013-11-03 06:16:00,
2013-11-02 23:17:00,67.8,13.4,29.68,South,180,5.4,5.4,12,0.00,,---,0.00,VWS V14.01,2013-11-03 06:17:00,
2013-11-02 23:18:00,67.8,13.4,29.68,SSE,158,4.3,5.4,12,0.00,,---,0.00,VWS V14.01,2013-11-03 06:18:00,
2013-11-02 23:19:00,68.0,13.5,29.68,SE,135,4.3,6.0,12,0.00,,---,0.00,VWS V14.01,2013-11-03 06:19:00,
2013-11-02 23:20:00,68.0,13.5,29.68,SSE,158,2.9,4.3,12,0.00,,---,0.00,VWS V14.01,2013-11-03 06:20:00,
2013-11-02 23:21:00,68.0,13.5,29.68,SE,135,4.3,4.9,12,0.00,,---,0.00,VWS V14.01,2013-11-03 06:21:00,
2013-11-02 23:22:00,68.2,13.7,29.68,SE,135,5.6,6.0,12,0.00,,---,0.00,VWS V14.01,2013-11-03 06:22:00,
2013-11-02 23:23:00,68.2,13.7,29.68,SSE,158,4.3,6.0,12,0.00,,---,0.00,VWS V14.01,2013-11-03 06:23:00,
2013-11-02 23:24:00,68.2,13.7,29.68,ESE,112,4.0,4.3,12,0.00,,---,0.00,VWS V14.01,2013-11-03 06:24:00,
2013-11-02 23:25:00,68.2,13.7,29.68,SE,135,2.7,4.0,12,0.00,,---,0.00,VWS V14.01,2013-11-03 06:25:00,
2013-11-02 23:27:00,68.4,13.8,29.68,SE,135,4.0,4.3,12,0.00,,---,0.00,VWS V14.01,2013-11-03 06:27:00,
2013-11-02 23:28:00,68.4,13.8,29.68,SSE,158,2.7,4.3,12,0.00,,---,0.00,VWS V14.01,2013-11-03 06:28:00,
2013-11-02 23:29:00,68.4,13.8,29.68,SSE,158,3.8,5.4,12,0.00,,---,0.00,VWS V14.01,2013-11-03 06:29:00,
2013-11-02 23:30:00,68.4,13.8,29.68,SSE,158,3.4,3.8,12,0.00,,---,0.00,VWS V14.01,2013-11-03 06:30:00,
2013-11-02 23:31:00,68.5,13.9,29.68,SSE,158,3.6,3.6,12,0.00,,---,0.00,VWS V14.01,2013-11-03 06:31:00,
2013-11-02 23:32:00,68.5,13.9,29.65,SSE,158,3.8,5.4,12,0.00,,---,0.00,VWS V14.01,2013-11-03 06:32:00,
2013-11-02 23:33:00,68.5,13.9,29.65,SSE,158,3.8,5.4,12,0.00,,---,0.00,VWS V14.01,2013-11-03 06:33:00,
2013-11-02 23:34:00,68.7,14.1,29.65,SSE,158,4.7,5.6,12,0.00,,---,0.00,VWS V14.01,2013-11-03 06:34:00,
2013-11-02 23:35:00,68.7,14.1,29.65,East,90,4.3,5.4,12,0.00,,---,0.00,VWS V14.01,2013-11-03 06:35:00,
2013-11-02 23:36:00,68.7,14.1,29.65,SSE,158,3.8,5.8,12,0.00,,---,0.00,VWS V14.01,2013-11-03 06:36:00,
2013-11-02 23:37:00,69.1,14.4,29.65,ESE,112,5.8,7.6,12,0.00,,---,0.00,VWS V14.01,2013-11-03 06:37:00,
2013-11-02 23:38:00,69.1,14.4,29.65,ESE,112,5.8,7.6,12,0.00,,---,0.00,VWS V14.01,2013-11-03 06:38:00,
2013-11-02 23:39:00,69.3,14.5,29.65,SSE,158,5.6,7.6,12,0.00,,---,0.00,VWS V14.01,2013-11-03 06:39:00,
2013-11-02 23:40:00,69.3,14.5,29.65,SE,135,5.4,5.6,12,0.00,,---,0.00,VWS V14.01,2013-11-03 06:40:00,
2013-11-02 23:42:00,69.3,14.5,29.65,SSE,158,4.3,6.0,12,0.00,,---,0.00,VWS V14.01,2013-11-03 06:42:00,
2013-11-02 23:43:00,69.3,14.5,29.65,SE,135,6.5,7.8,12,0.00,,---,0.00,VWS V14.01,2013-11-03 06:43:00,
2013-11-02 23:45:00,69.3,14.5,29.65,SSE,158,5.4,6.5,12,0.00,,---,0.00,VWS V14.01,2013-11-03 06:45:00,
2013-11-02 23:46:00,69.3,14.5,29.65,SE,135,7.4,9.8,12,0.00,,---,0.00,VWS V14.01,2013-11-03 06:46:00,
2013-11-02 23:47:00,69.3,14.5,29.68,SE,135,7.6,9.8,12,0.00,,---,0.00,VWS V14.01,2013-11-03 06:47:00,
2013-11-02 23:48:00,69.1,14.4,29.68,SSE,158,8.5,8.5,12,0.00,,---,0.00,VWS V14.01,2013-11-03 06:48:00,
2013-11-02 23:49:00,69.1,14.4,29.68,South,180,7.6,8.5,12,0.00,,---,0.00,VWS V14.01,2013-11-03 06:49:00,
2013-11-02 23:50:00,69.1,14.4,29.68,South,180,7.6,7.6,12,0.00,,---,0.00,VWS V14.01,2013-11-03 06:50:00,
2013-11-02 23:51:00,69.1,14.4,29.68,SSE,158,6.3,8.1,12,0.00,,---,0.00,VWS V14.01,2013-11-03 06:51:00,
2013-11-02 23:52:00,69.1,14.4,29.68,South,180,6.0,6.3,12,0.00,,---,0.00,VWS V14.01,2013-11-03 06:52:00,
2013-11-02 23:53:00,69.1,14.4,29.68,SE,135,5.4,8.5,12,0.00,,---,0.00,VWS V14.01,2013-11-03 06:53:00,
2013-11-02 23:54:00,69.1,14.4,29.68,South,180,4.5,6.5,12,0.00,,---,0.00,VWS V14.01,2013-11-03 06:54:00,
2013-11-02 23:55:00,69.1,14.4,29.68,SSE,158,2.9,6.0,12,0.00,,---,0.00,VWS V14.01,2013-11-03 06:55:00,
2013-11-02 23:56:00,69.1,14.4,29.68,SSE,158,4.0,5.6,12,0.00,,---,0.00,VWS V14.01,2013-11-03 06:56:00,
2013-11-02 23:57:00,69.1,14.4,29.68,SSE,158,4.0,5.8,12,0.00,,---,0.00,VWS V14.01,2013-11-03 06:57:00,
2013-11-02 23:58:00,69.1,14.4,29.68,South,180,5.4,5.4,12,0.00,,---,0.00,VWS V14.01,2013-11-03 06:58:00,
2013-11-02 23:59:00,69.1,14.4,29.68,SSE,158,6.9,6.9,12,0.00,,---,0.00,VWS V14.01,2013-11-03 06:59:00,